Time,TemperatureF,DewpointF,PressureIn,WindDirection,WindDirectionDegrees,WindSpeedMPH,WindSpeedGustMPH,Humidity,HourlyPrecipIn,Conditions,Clouds,dailyrainin,SoftwareType,DateUTC
2013-07-10 00:00:00,69.3,65.6,30.02,SW,223,0.0,5.0,88,0.00,,SKC,0.01,VWS V14.01,2013-07-10 04:00:00,
2013-07-10 00:01:00,69.3,65.6,30.02,SW,224,1.0,4.0,88,0.00,,SKC,0.00,VWS V14.01,2013-07-10 04:01:00,
2013-07-10 00:06:00,69.3,65.6,30.02,SW,226,0.0,0.0,88,0.00,,SKC,0.00,VWS V14.01,2013-07-10 04:06:00,
2013-07-10 00:07:00,69.3,65.6,30.02,SW,226,0.0,0.0,88,0.00,,SKC,0.00,VWS V14.01,2013-07-10 04:07:00,
2013-07-10 00:11:00,69.4,65.7,30.02,SW,227,0.0,0.0,88,0.00,,SKC,0.00,VWS V14.01,2013-07-10 04:11:00,
2013-07-10 00:12:00,69.4,65.7,30.02,SW,229,0.0,0.0,88,0.00,,SKC,0.00,VWS V14.01,2013-07-10 04:12:00,
2013-07-10 00:16:00,69.4,65.7,30.02,SW,224,0.0,0.0,88,0.00,,SKC,0.00,VWS V14.01,2013-07-10 04:16:00,
2013-07-10 00:17:00,69.4,65.7,30.02,SW,226,0.0,0.0,88,0.00,,SKC,0.00,VWS V14.01,2013-07-10 04:17:00,
2013-07-10 00:22:00,69.4,65.7,30.02,SW,223,0.0,0.0,88,0.00,,SKC,0.00,VWS V14.01,2013-07-10 04:22:00,
2013-07-10 00:23:00,69.4,65.7,30.02,SW,223,0.0,0.0,88,0.00,,SKC,0.00,VWS V14.01,2013-07-10 04:23:00,
2013-07-10 00:27:00,69.4,65.7,30.02,SW,229,0.0,0.0,88,0.00,,SKC,0.00,VWS V14.01,2013-07-10 04:27:00,
2013-07-10 00:28:00,69.4,65.7,30.02,SW,230,3.0,3.0,88,0.00,,SKC,0.00,VWS V14.01,2013-07-10 04:28:00,
2013-07-10 00:29:00,69.4,65.7,30.02,SW,229,0.0,3.0,88,0.00,,SKC,0.00,VWS V14.01,2013-07-10 04:29:00,
2013-07-10 00:32:00,69.4,65.7,30.02,SW,224,0.0,0.0,88,0.00,,SKC,0.00,VWS V14.01,2013-07-10 04:32:00,
2013-07-10 00:33:00,69.4,65.7,30.02,SW,229,0.0,0.0,88,0.00,,SKC,0.00,VWS V14.01,2013-07-10 04:33:00,
2013-07-10 00:34:00,69.4,66.0,30.02,SW,226,0.0,0.0,89,0.00,,SKC,0.00,VWS V14.01,2013-07-10 04:34:00,
2013-07-10 00:38:00,69.4,66.0,30.02,SW,224,0.0,0.0,89,0.00,,SKC,0.00,VWS V14.01,2013-07-10 04:38:00,
2013-07-10 00:39:00,69.4,66.0,30.02,SW,224,0.0,0.0,89,0.00,,SKC,0.00,VWS V14.01,2013-07-10 04:39:00,
2013-07-10 00:43:00,69.3,65.9,30.02,SW,223,0.0,0.0,89,0.00,,SKC,0.00,VWS V14.01,2013-07-10 04:43:00,
2013-07-10 00:44:00,69.3,65.9,30.02,SW,222,0.0,0.0,89,0.00,,SKC,0.00,VWS V14.01,2013-07-10 04:44:00,
2013-07-10 00:45:00,69.3,65.9,30.02,SW,233,0.0,0.0,89,0.00,,SKC,0.00,VWS V14.01,2013-07-10 04:45:00,
2013-07-10 00:48:00,69.3,65.9,30.02,SW,236,0.0,0.0,89,0.00,,SKC,0.00,VWS V14.01,2013-07-10 04:48:00,
2013-07-10 00:49:00,69.3,65.9,30.02,SW,224,0.0,0.0,89,0.00,,SKC,0.00,VWS V14.01,2013-07-10 04:49:00,
2013-07-10 00:50:00,69.3,65.9,30.02,SW,230,0.0,0.0,89,0.00,,SKC,0.00,VWS V14.01,2013-07-10 04:50:00,
2013-07-10 00:53:00,69.1,65.7,30.02,SW,224,0.0,0.0,89,0.00,,SKC,0.00,VWS V14.01,2013-07-10 04:53:00,
2013-07-10 00:54:00,69.1,65.7,30.02,SW,224,0.0,0.0,89,0.00,,SKC,0.00,VWS V14.01,2013-07-10 04:54:00,
2013-07-10 00:55:00,69.1,65.7,30.02,SW,224,0.0,0.0,89,0.00,,SKC,0.00,VWS V14.01,2013-07-10 04:55:00,
2013-07-10 00:59:00,69.1,65.7,30.02,SW,226,0.0,0.0,89,0.00,,SKC,0.00,VWS V14.01,2013-07-10 04:59:00,
2013-07-10 01:00:00,69.1,65.7,30.02,SW,227,0.0,0.0,89,0.00,,SKC,0.00,VWS V14.01,2013-07-10 05:00:00,
2013-07-10 01:04:00,69.1,65.7,30.02,SW,226,0.0,0.0,89,0.00,,SKC,0.00,VWS V14.01,2013-07-10 05:04:00,
2013-07-10 01:05:00,69.1,65.7,30.02,SW,224,0.0,0.0,89,0.00,,SKC,0.00,VWS V14.01,2013-07-10 05:05:00,
2013-07-10 01:09:00,69.1,65.7,30.02,SW,222,0.0,0.0,89,0.00,,SKC,0.00,VWS V14.01,2013-07-10 05:09:00,
2013-07-10 01:10:00,69.1,65.7,30.02,SW,219,0.0,0.0,89,0.00,,SKC,0.00,VWS V14.01,2013-07-10 05:10:00,
2013-07-10 01:11:00,69.1,65.7,30.02,SW,226,0.0,0.0,89,0.00,,SKC,0.00,VWS V14.01,2013-07-10 05:11:00,
2013-07-10 01:14:00,68.9,65.5,30.02,SW,223,0.0,1.0,89,0.00,,SKC,0.00,VWS V14.01,2013-07-10 05:14:00,
2013-07-10 01:15:00,68.9,65.5,30.01,SW,226,0.0,1.0,89,0.00,,SKC,0.00,VWS V14.01,2013-07-10 05:15:00,
2013-07-10 01:16:00,68.9,65.5,30.01,SW,220,0.0,0.0,89,0.00,,SKC,0.00,VWS V14.01,2013-07-10 05:16:00,
2013-07-10 01:20:00,68.9,65.5,30.01,SW,220,0.0,5.0,89,0.00,,SKC,0.00,VWS V14.01,2013-07-10 05:20:00,
2013-07-10 01:21:00,68.9,65.5,30.01,SW,220,0.0,0.0,89,0.00,,SKC,0.00,VWS V14.01,2013-07-10 05:21:00,
2013-07-10 01:22:00,68.9,65.5,30.01,SW,230,3.0,4.0,89,0.00,,SKC,0.00,VWS V14.01,2013-07-10 05:22:00,
2013-07-10 01:25:00,68.8,65.4,30.01,SW,219,2.0,5.0,89,0.00,,SKC,0.00,VWS V14.01,2013-07-10 05:25:00,
2013-07-10 01:26:00,68.8,65.4,30.01,SW,219,1.0,3.0,89,0.00,,SKC,0.00,VWS V14.01,2013-07-10 05:26:00,
2013-07-10 01:27:00,68.8,65.4,30.01,SSW,213,0.0,3.0,89,0.00,,SKC,0.00,VWS V14.01,2013-07-10 05:27:00,
2013-07-10 01:30:00,68.8,65.4,30.00,SSW,213,0.0,3.0,89,0.00,,SKC,0.00,VWS V14.01,2013-07-10 05:30:00,
2013-07-10 01:31:00,68.8,65.8,30.00,SW,222,6.0,6.0,90,0.00,,SKC,0.00,VWS V14.01,2013-07-10 05:31:00,
2013-07-10 01:34:00,68.8,65.8,30.00,SW,224,0.0,6.0,90,0.00,,SKC,0.00,VWS V14.01,2013-07-10 05:34:00,
2013-07-10 01:35:00,68.8,65.8,30.00,SW,217,0.0,6.0,90,0.00,,SKC,0.00,VWS V14.01,2013-07-10 05:35:00,
2013-07-10 01:36:00,68.8,65.8,30.00,SW,223,0.0,0.0,90,0.00,,SKC,0.00,VWS V14.01,2013-07-10 05:36:00,
2013-07-10 01:37:00,68.8,65.8,30.00,SW,223,0.0,0.0,90,0.00,,SKC,0.00,VWS V14.01,2013-07-10 05:37:00,
2013-07-10 01:40:00,68.8,65.8,30.00,SW,223,0.0,0.0,90,0.00,,SKC,0.00,VWS V14.01,2013-07-10 05:40:00,
2013-07-10 01:41:00,68.8,65.8,30.00,SW,223,0.0,0.0,90,0.00,,SKC,0.00,VWS V14.01,2013-07-10 05:41:00,
2013-07-10 01:42:00,68.8,65.8,30.00,SW,222,0.0,0.0,90,0.00,,SKC,0.00,VWS V14.01,2013-07-10 05:42:00,
2013-07-10 01:43:00,68.8,65.8,30.00,SW,224,0.0,0.0,90,0.00,,SKC,0.00,VWS V14.01,2013-07-10 05:43:00,
2013-07-10 01:46:00,68.8,65.8,30.00,SW,224,0.0,0.0,90,0.00,,SKC,0.00,VWS V14.01,2013-07-10 05:46:00,
2013-07-10 01:47:00,68.6,65.6,30.00,SSW,206,3.0,5.0,90,0.00,,SKC,0.00,VWS V14.01,2013-07-10 05:47:00,
2013-07-10 01:49:00,68.6,65.6,30.00,WSW,240,2.0,5.0,90,0.00,,SKC,0.00,VWS V14.01,2013-07-10 05:49:00,
2013-07-10 01:51:00,68.6,65.6,30.00,SW,236,0.0,0.0,90,0.00,,SKC,0.00,VWS V14.01,2013-07-10 05:51:00,
2013-07-10 01:52:00,68.6,65.6,30.00,SW,232,2.0,2.0,90,0.00,,SKC,0.00,VWS V14.01,2013-07-10 05:52:00,
2013-07-10 01:53:00,68.4,65.4,30.00,SW,232,3.0,3.0,90,0.00,,SKC,0.00,VWS V14.01,2013-07-10 05:53:00,
2013-07-10 01:54:00,68.4,65.4,30.00,SW,230,0.0,3.0,90,0.00,,SKC,0.00,VWS V14.01,2013-07-10 05:54:00,
2013-07-10 01:56:00,68.4,65.4,30.00,SW,232,0.0,0.0,90,0.00,,SKC,0.00,VWS V14.01,2013-07-10 05:56:00,
2013-07-10 01:57:00,68.4,65.4,30.00,SW,232,0.0,0.0,90,0.00,,SKC,0.00,VWS V14.01,2013-07-10 05:57:00,
2013-07-10 01:58:00,68.4,65.4,30.00,SW,226,1.0,3.0,90,0.00,,SKC,0.00,VWS V14.01,2013-07-10 05:58:00,
2013-07-10 01:59:00,68.4,65.4,30.00,SW,230,0.0,5.0,90,0.00,,SKC,0.00,VWS V14.01,2013-07-10 05:59:00,
2013-07-10 02:02:00,68.4,65.4,29.99,SW,224,0.0,1.0,90,0.00,,SKC,0.00,VWS V14.01,2013-07-10 06:02:00,
2013-07-10 02:03:00,68.4,65.4,29.99,SW,226,0.0,1.0,90,0.00,,SKC,0.00,VWS V14.01,2013-07-10 06:03:00,
2013-07-10 02:05:00,68.4,65.4,29.99,SW,227,0.0,1.0,90,0.00,,SKC,0.00,VWS V14.01,2013-07-10 06:05:00,
2013-07-10 02:07:00,68.4,65.7,29.99,SW,227,0.0,0.0,91,0.00,,SKC,0.00,VWS V14.01,2013-07-10 06:07:00,
2013-07-10 02:08:00,68.4,65.7,29.99,SW,224,2.0,5.0,91,0.00,,SKC,0.00,VWS V14.01,2013-07-10 06:08:00,
2013-07-10 02:10:00,68.4,65.7,29.99,SW,229,0.0,5.0,91,0.00,,SKC,0.00,VWS V14.01,2013-07-10 06:10:00,
2013-07-10 02:12:00,68.4,65.7,29.99,SW,232,0.0,0.0,91,0.00,,SKC,0.00,VWS V14.01,2013-07-10 06:12:00,
2013-07-10 02:13:00,68.4,65.7,29.99,SW,223,0.0,0.0,91,0.00,,SKC,0.00,VWS V14.01,2013-07-10 06:13:00,
2013-07-10 02:15:00,68.4,65.7,29.99,SW,222,0.0,0.0,91,0.00,,SKC,0.00,VWS V14.01,2013-07-10 06:15:00,
2013-07-10 02:16:00,68.4,65.7,29.99,SW,219,0.0,0.0,91,0.00,,SKC,0.00,VWS V14.01,2013-07-10 06:16:00,
2013-07-10 02:17:00,68.4,65.7,29.99,SW,217,0.0,0.0,91,0.00,,SKC,0.00,VWS V14.01,2013-07-10 06:17:00,
2013-07-10 02:18:00,68.4,65.7,29.99,SW,220,0.0,0.0,91,0.00,,SKC,0.00,VWS V14.01,2013-07-10 06:18:00,
2013-07-10 02:19:00,68.4,65.7,29.99,SW,219,0.0,0.0,91,0.00,,SKC,0.00,VWS V14.01,2013-07-10 06:19:00,
2013-07-10 02:21:00,68.3,65.6,29.99,SW,217,0.0,0.0,91,0.00,,SKC,0.00,VWS V14.01,2013-07-10 06:21:00,
2013-07-10 02:22:00,68.3,65.6,29.99,SW,217,0.0,0.0,91,0.00,,SKC,0.00,VWS V14.01,2013-07-10 06:22:00,
2013-07-10 02:23:00,68.3,65.6,29.99,SW,217,2.0,5.0,91,0.00,,SKC,0.00,VWS V14.01,2013-07-10 06:23:00,
2013-07-10 02:24:00,68.3,65.6,29.99,SW,215,0.0,5.0,91,0.00,,SKC,0.00,VWS V14.01,2013-07-10 06:24:00,
2013-07-10 02:26:00,68.3,65.6,29.99,SW,220,0.0,0.0,91,0.00,,SKC,0.00,VWS V14.01,2013-07-10 06:26:00,
2013-07-10 02:27:00,68.3,65.6,29.99,SW,217,0.0,0.0,91,0.00,,SKC,0.00,VWS V14.01,2013-07-10 06:27:00,
2013-07-10 02:28:00,68.3,65.6,29.99,SW,226,2.0,3.0,91,0.00,,SKC,0.00,VWS V14.01,2013-07-10 06:28:00,
2013-07-10 02:29:00,68.3,65.6,29.99,SW,224,2.0,3.0,91,0.00,,SKC,0.00,VWS V14.01,2013-07-10 06:29:00,
2013-07-10 02:31:00,68.1,65.7,29.99,SW,220,0.0,0.0,92,0.00,,SKC,0.00,VWS V14.01,2013-07-10 06:31:00,
2013-07-10 02:32:00,68.1,65.7,29.99,SW,220,0.0,0.0,92,0.00,,SKC,0.00,VWS V14.01,2013-07-10 06:32:00,
2013-07-10 02:33:00,68.1,65.7,29.99,SW,220,0.0,0.0,92,0.00,,SKC,0.00,VWS V14.01,2013-07-10 06:33:00,
2013-07-10 02:34:00,68.1,65.7,29.99,SSW,208,0.0,0.0,92,0.00,,SKC,0.00,VWS V14.01,2013-07-10 06:34:00,
2013-07-10 02:37:00,68.1,65.7,29.99,SW,216,0.0,0.0,92,0.00,,SKC,0.00,VWS V14.01,2013-07-10 06:37:00,
2013-07-10 02:38:00,68.1,65.7,29.99,SW,219,0.0,0.0,92,0.00,,SKC,0.00,VWS V14.01,2013-07-10 06:38:00,
2013-07-10 02:39:00,68.1,65.7,29.99,SW,220,0.0,0.0,92,0.00,,SKC,0.00,VWS V14.01,2013-07-10 06:39:00,
2013-07-10 02:40:00,68.1,65.7,29.99,SW,217,0.0,0.0,92,0.00,,SKC,0.00,VWS V14.01,2013-07-10 06:40:00,
2013-07-10 02:42:00,68.1,65.7,29.99,SW,216,0.0,0.0,92,0.00,,SKC,0.00,VWS V14.01,2013-07-10 06:42:00,
2013-07-10 02:43:00,68.1,65.7,29.99,SSW,213,0.0,0.0,92,0.00,,SKC,0.00,VWS V14.01,2013-07-10 06:43:00,
2013-07-10 02:44:00,68.1,65.7,29.99,SSW,213,0.0,0.0,92,0.00,,SKC,0.00,VWS V14.01,2013-07-10 06:44:00,
2013-07-10 02:45:00,68.1,65.7,29.99,SW,216,0.0,0.0,92,0.00,,SKC,0.00,VWS V14.01,2013-07-10 06:45:00,
2013-07-10 02:47:00,68.1,65.7,29.99,SW,217,0.0,0.0,92,0.00,,SKC,0.00,VWS V14.01,2013-07-10 06:47:00,
2013-07-10 02:49:00,67.9,65.5,29.99,SW,223,2.0,3.0,92,0.00,,SKC,0.00,VWS V14.01,2013-07-10 06:49:00,
2013-07-10 02:50:00,67.9,65.5,29.99,SW,217,0.0,4.0,92,0.00,,SKC,0.00,VWS V14.01,2013-07-10 06:50:00,
2013-07-10 02:52:00,67.9,65.5,29.99,SW,217,0.0,0.0,92,0.00,,SKC,0.00,VWS V14.01,2013-07-10 06:52:00,
2013-07-10 02:54:00,67.9,65.5,29.99,SW,217,0.0,0.0,92,0.00,,SKC,0.00,VWS V14.01,2013-07-10 06:54:00,
2013-07-10 02:55:00,67.9,65.5,29.99,SW,216,0.0,0.0,92,0.00,,SKC,0.00,VWS V14.01,2013-07-10 06:55:00,
2013-07-10 02:57:00,67.9,65.8,29.99,SW,215,0.0,0.0,93,0.00,,SKC,0.00,VWS V14.01,2013-07-10 06:57:00,
2013-07-10 02:59:00,67.9,65.8,29.99,SW,217,0.0,2.0,93,0.00,,SKC,0.00,VWS V14.01,2013-07-10 06:59:00,
2013-07-10 03:00:00,67.9,65.8,29.99,SW,217,0.0,2.0,93,0.00,,SKC,0.00,VWS V14.01,2013-07-10 07:00:00,
2013-07-10 03:01:00,67.9,65.8,29.99,SSW,213,0.0,0.0,93,0.00,,SKC,0.00,VWS V14.01,2013-07-10 07:01:00,
2013-07-10 03:03:00,67.9,65.8,29.99,SW,217,0.0,0.0,93,0.00,,SKC,0.00,VWS V14.01,2013-07-10 07:03:00,
2013-07-10 03:04:00,67.9,65.8,29.99,SSW,213,0.0,0.0,93,0.00,,SKC,0.00,VWS V14.01,2013-07-10 07:04:00,
2013-07-10 03:05:00,67.8,65.7,29.99,SW,226,0.0,0.0,93,0.00,,SKC,0.00,VWS V14.01,2013-07-10 07:05:00,
2013-07-10 03:06:00,67.8,65.7,29.99,SW,222,0.0,0.0,93,0.00,,SKC,0.00,VWS V14.01,2013-07-10 07:06:00,
2013-07-10 03:08:00,67.8,65.7,29.99,SW,222,2.0,5.0,93,0.00,,SKC,0.00,VWS V14.01,2013-07-10 07:08:00,
2013-07-10 03:10:00,67.8,65.7,29.99,SW,219,1.0,5.0,93,0.00,,SKC,0.00,VWS V14.01,2013-07-10 07:10:00,
2013-07-10 03:11:00,67.8,65.7,29.99,SW,224,2.0,2.0,93,0.00,,SKC,0.00,VWS V14.01,2013-07-10 07:11:00,
2013-07-10 03:13:00,67.8,65.7,29.99,SW,223,0.0,3.0,93,0.00,,SKC,0.00,VWS V14.01,2013-07-10 07:13:00,
2013-07-10 03:15:00,67.8,65.7,29.98,SW,224,0.0,3.0,93,0.00,,SKC,0.00,VWS V14.01,2013-07-10 07:15:00,
2013-07-10 03:16:00,67.8,65.7,29.98,SW,223,2.0,2.0,93,0.00,,SKC,0.00,VWS V14.01,2013-07-10 07:16:00,
2013-07-10 03:17:00,67.8,65.7,29.98,SW,220,2.0,3.0,93,0.00,,SKC,0.00,VWS V14.01,2013-07-10 07:17:00,
2013-07-10 03:18:00,67.8,65.7,29.98,SW,224,0.0,4.0,93,0.00,,SKC,0.00,VWS V14.01,2013-07-10 07:18:00,
2013-07-10 03:20:00,67.8,65.7,29.98,SW,224,1.0,1.0,93,0.00,,SKC,0.00,VWS V14.01,2013-07-10 07:20:00,
2013-07-10 03:22:00,67.8,66.0,29.98,SW,215,2.0,3.0,94,0.00,,SKC,0.00,VWS V14.01,2013-07-10 07:22:00,
2013-07-10 03:23:00,67.8,66.0,29.98,SSW,213,0.0,3.0,94,0.00,,SKC,0.00,VWS V14.01,2013-07-10 07:23:00,
2013-07-10 03:24:00,67.8,66.0,29.98,SSW,210,0.0,3.0,94,0.00,,SKC,0.00,VWS V14.01,2013-07-10 07:24:00,
2013-07-10 03:26:00,67.8,66.0,29.98,SSW,213,0.0,0.0,94,0.00,,SKC,0.00,VWS V14.01,2013-07-10 07:26:00,
2013-07-10 03:27:00,67.8,66.0,29.98,SSW,213,0.0,0.0,94,0.00,,SKC,0.00,VWS V14.01,2013-07-10 07:27:00,
2013-07-10 03:28:00,67.8,66.0,29.98,SSW,212,0.0,0.0,94,0.00,,SKC,0.00,VWS V14.01,2013-07-10 07:28:00,
2013-07-10 03:29:00,67.8,66.0,29.98,SSW,209,0.0,0.0,94,0.00,,SKC,0.00,VWS V14.01,2013-07-10 07:29:00,
2013-07-10 03:32:00,67.8,66.0,29.97,SW,216,0.0,2.0,94,0.00,,SKC,0.00,VWS V14.01,2013-07-10 07:32:00,
2013-07-10 03:33:00,67.8,66.0,29.97,SW,216,0.0,2.0,94,0.00,,SKC,0.00,VWS V14.01,2013-07-10 07:33:00,
2013-07-10 03:34:00,67.8,66.0,29.97,SW,219,0.0,2.0,94,0.00,,SKC,0.00,VWS V14.01,2013-07-10 07:34:00,
2013-07-10 03:37:00,67.8,66.0,29.97,SW,217,0.0,0.0,94,0.00,,SKC,0.00,VWS V14.01,2013-07-10 07:37:00,
2013-07-10 03:38:00,67.8,66.0,29.97,SW,220,0.0,0.0,94,0.00,,SKC,0.00,VWS V14.01,2013-07-10 07:38:00,
2013-07-10 03:39:00,67.8,66.0,29.97,SW,215,0.0,0.0,94,0.00,,SKC,0.00,VWS V14.01,2013-07-10 07:39:00,
2013-07-10 03:42:00,67.8,66.0,29.97,SW,217,0.0,0.0,94,0.00,,SKC,0.00,VWS V14.01,2013-07-10 07:42:00,
2013-07-10 03:43:00,67.8,66.0,29.97,SSW,210,0.0,0.0,94,0.00,,SKC,0.00,VWS V14.01,2013-07-10 07:43:00,
2013-07-10 03:44:00,67.8,66.0,29.97,SW,216,0.0,0.0,94,0.00,,SKC,0.00,VWS V14.01,2013-07-10 07:44:00,
2013-07-10 03:48:00,67.8,66.0,29.97,SW,216,0.0,0.0,94,0.00,,SKC,0.00,VWS V14.01,2013-07-10 07:48:00,
2013-07-10 03:49:00,67.8,66.0,29.97,SW,216,0.0,0.0,94,0.00,,SKC,0.00,VWS V14.01,2013-07-10 07:49:00,
2013-07-10 03:53:00,67.8,66.0,29.97,SW,220,0.0,0.0,94,0.00,,SKC,0.00,VWS V14.01,2013-07-10 07:53:00,
2013-07-10 03:54:00,67.8,66.0,29.97,SW,216,0.0,0.0,94,0.00,,SKC,0.00,VWS V14.01,2013-07-10 07:54:00,
2013-07-10 03:55:00,67.8,66.0,29.97,SW,219,0.0,0.0,94,0.00,,SKC,0.00,VWS V14.01,2013-07-10 07:55:00,
2013-07-10 03:58:00,67.8,66.0,29.97,SSW,212,0.0,0.0,94,0.00,,SKC,0.00,VWS V14.01,2013-07-10 07:58:00,
2013-07-10 03:59:00,67.8,66.0,29.97,SSW,213,0.0,0.0,94,0.00,,SKC,0.00,VWS V14.01,2013-07-10 07:59:00,
2013-07-10 04:00:00,67.8,66.0,29.97,SW,217,0.0,0.0,94,0.00,,SKC,0.00,VWS V14.01,2013-07-10 08:00:00,
2013-07-10 04:04:00,67.6,65.8,29.97,SW,223,2.0,4.0,94,0.00,,SKC,0.00,VWS V14.01,2013-07-10 08:04:00,
2013-07-10 04:05:00,67.6,65.8,29.97,SW,219,2.0,4.0,94,0.00,,SKC,0.00,VWS V14.01,2013-07-10 08:05:00,
2013-07-10 04:06:00,67.6,66.1,29.97,SW,222,0.0,0.0,95,0.00,,SKC,0.00,VWS V14.01,2013-07-10 08:06:00,
2013-07-10 04:09:00,67.6,66.1,29.97,SW,227,0.0,0.0,95,0.00,,SKC,0.00,VWS V14.01,2013-07-10 08:09:00,
2013-07-10 04:10:00,67.6,66.1,29.97,SW,217,0.0,0.0,95,0.00,,SKC,0.00,VWS V14.01,2013-07-10 08:10:00,
2013-07-10 04:13:00,67.6,66.1,29.97,SW,216,0.0,0.0,95,0.00,,SKC,0.00,VWS V14.01,2013-07-10 08:13:00,
2013-07-10 04:15:00,67.8,66.3,29.97,SW,219,0.0,0.0,95,0.00,,SKC,0.00,VWS V14.01,2013-07-10 08:15:00,
2013-07-10 04:18:00,67.6,66.1,29.97,SW,223,2.0,5.0,95,0.00,,SKC,0.00,VWS V14.01,2013-07-10 08:18:00,
2013-07-10 04:20:00,67.6,66.1,29.97,SW,223,0.0,5.0,95,0.00,,SKC,0.00,VWS V14.01,2013-07-10 08:20:00,
2013-07-10 04:21:00,67.6,66.1,29.97,SW,222,0.0,0.0,95,0.00,,SKC,0.00,VWS V14.01,2013-07-10 08:21:00,
2013-07-10 04:23:00,67.6,66.1,29.97,SW,222,0.0,0.0,95,0.00,,SKC,0.00,VWS V14.01,2013-07-10 08:23:00,
2013-07-10 04:25:00,67.6,66.1,29.97,SW,223,0.0,0.0,95,0.00,,SKC,0.00,VWS V14.01,2013-07-10 08:25:00,
2013-07-10 04:26:00,67.6,66.1,29.97,SW,219,0.0,0.0,95,0.00,,SKC,0.00,VWS V14.01,2013-07-10 08:26:00,
2013-07-10 04:27:00,67.6,66.1,29.97,SW,224,0.0,0.0,95,0.00,,SKC,0.00,VWS V14.01,2013-07-10 08:27:00,
2013-07-10 04:29:00,67.6,66.1,29.97,SW,222,0.0,0.0,95,0.00,,SKC,0.00,VWS V14.01,2013-07-10 08:29:00,
2013-07-10 04:30:00,67.6,66.1,29.97,SW,223,0.0,0.0,95,0.00,,SKC,0.00,VWS V14.01,2013-07-10 08:30:00,
2013-07-10 04:31:00,67.6,66.1,29.97,SW,222,0.0,0.0,95,0.00,,SKC,0.00,VWS V14.01,2013-07-10 08:31:00,
2013-07-10 04:32:00,67.6,66.1,29.97,SW,216,0.0,0.0,95,0.00,,SKC,0.00,VWS V14.01,2013-07-10 08:32:00,
2013-07-10 04:34:00,67.6,66.1,29.97,SSW,213,0.0,0.0,95,0.00,,SKC,0.00,VWS V14.01,2013-07-10 08:34:00,
2013-07-10 04:36:00,67.6,66.1,29.97,SW,216,0.0,0.0,95,0.00,,SKC,0.00,VWS V14.01,2013-07-10 08:36:00,
2013-07-10 04:37:00,67.6,66.1,29.97,SW,216,0.0,0.0,95,0.00,,SKC,0.00,VWS V14.01,2013-07-10 08:37:00,
2013-07-10 04:38:00,67.6,66.1,29.97,SW,216,0.0,0.0,95,0.00,,SKC,0.00,VWS V14.01,2013-07-10 08:38:00,
2013-07-10 04:40:00,67.6,66.1,29.97,SW,216,0.0,0.0,95,0.00,,SKC,0.00,VWS V14.01,2013-07-10 08:40:00,
2013-07-10 04:41:00,67.6,66.1,29.97,SW,217,0.0,0.0,95,0.00,,SKC,0.00,VWS V14.01,2013-07-10 08:41:00,
2013-07-10 04:43:00,67.6,66.1,29.97,SSW,213,0.0,0.0,95,0.00,,SKC,0.00,VWS V14.01,2013-07-10 08:43:00,
2013-07-10 04:45:00,67.6,66.1,29.97,SW,215,0.0,1.0,95,0.00,,SKC,0.00,VWS V14.01,2013-07-10 08:45:00,
2013-07-10 04:46:00,67.6,66.1,29.97,SSW,210,0.0,0.0,95,0.00,,SKC,0.00,VWS V14.01,2013-07-10 08:46:00,
2013-07-10 04:47:00,67.6,66.1,29.97,SW,215,0.0,0.0,95,0.00,,SKC,0.00,VWS V14.01,2013-07-10 08:47:00,
2013-07-10 04:48:00,67.6,66.1,29.97,SW,216,0.0,0.0,95,0.00,,SKC,0.00,VWS V14.01,2013-07-10 08:48:00,
2013-07-10 04:49:00,67.6,66.1,29.97,SSW,210,0.0,0.0,95,0.00,,SKC,0.00,VWS V14.01,2013-07-10 08:49:00,
2013-07-10 04:51:00,67.6,66.1,29.97,SW,215,0.0,0.0,95,0.00,,SKC,0.00,VWS V14.01,2013-07-10 08:51:00,
2013-07-10 04:52:00,67.6,66.1,29.97,SW,215,0.0,0.0,95,0.00,,SKC,0.00,VWS V14.01,2013-07-10 08:52:00,
2013-07-10 04:54:00,67.6,66.1,29.97,SW,217,1.0,3.0,95,0.00,,SKC,0.00,VWS V14.01,2013-07-10 08:54:00,
2013-07-10 04:55:00,67.6,66.1,29.97,SSW,212,0.0,3.0,95,0.00,,SKC,0.00,VWS V14.01,2013-07-10 08:55:00,
2013-07-10 04:56:00,67.6,66.1,29.97,SSW,213,0.0,0.0,95,0.00,,SKC,0.00,VWS V14.01,2013-07-10 08:56:00,
2013-07-10 04:58:00,67.6,66.1,29.97,SW,215,0.0,0.0,95,0.00,,SKC,0.00,VWS V14.01,2013-07-10 08:58:00,
2013-07-10 04:59:00,67.6,66.1,29.97,SW,217,0.0,0.0,95,0.00,,SKC,0.00,VWS V14.01,2013-07-10 08:59:00,
2013-07-10 05:00:00,67.6,66.1,29.97,SW,215,0.0,0.0,95,0.00,,SKC,0.00,VWS V14.01,2013-07-10 09:00:00,
2013-07-10 05:01:00,67.6,66.1,29.97,SW,215,0.0,0.0,95,0.00,,SKC,0.00,VWS V14.01,2013-07-10 09:01:00,
2013-07-10 05:02:00,67.6,66.1,29.97,SSW,212,0.0,0.0,95,0.00,,SKC,0.00,VWS V14.01,2013-07-10 09:02:00,
2013-07-10 05:03:00,67.6,66.1,29.97,SW,216,0.0,0.0,95,0.00,,SKC,0.00,VWS V14.01,2013-07-10 09:03:00,
2013-07-10 05:04:00,67.8,66.3,29.97,SW,217,0.0,0.0,95,0.00,,SKC,0.00,VWS V14.01,2013-07-10 09:04:00,
2013-07-10 05:05:00,67.8,66.3,29.97,SW,216,0.0,0.0,95,0.00,,SKC,0.00,VWS V14.01,2013-07-10 09:05:00,
2013-07-10 05:07:00,67.8,66.3,29.97,SW,220,0.0,3.0,95,0.00,,SKC,0.00,VWS V14.01,2013-07-10 09:07:00,
2013-07-10 05:08:00,67.8,66.3,29.97,SW,216,0.0,3.0,95,0.00,,SKC,0.00,VWS V14.01,2013-07-10 09:08:00,
2013-07-10 05:09:00,67.8,66.3,29.97,SW,220,0.0,3.0,95,0.00,,SKC,0.00,VWS V14.01,2013-07-10 09:09:00,
2013-07-10 05:10:00,67.8,66.3,29.97,SW,219,0.0,3.0,95,0.00,,SKC,0.00,VWS V14.01,2013-07-10 09:10:00,
2013-07-10 05:12:00,67.8,66.3,29.97,SW,222,0.0,0.0,95,0.00,,SKC,0.00,VWS V14.01,2013-07-10 09:12:00,
2013-07-10 05:13:00,67.8,66.3,29.97,SW,215,0.0,0.0,95,0.00,,SKC,0.00,VWS V14.01,2013-07-10 09:13:00,
2013-07-10 05:14:00,67.8,66.3,29.97,SW,215,0.0,0.0,95,0.00,,SKC,0.00,VWS V14.01,2013-07-10 09:14:00,
2013-07-10 05:15:00,67.8,66.3,29.97,SW,215,0.0,0.0,95,0.00,,SKC,0.00,VWS V14.01,2013-07-10 09:15:00,
2013-07-10 05:17:00,67.8,66.3,29.97,SW,219,0.0,0.0,95,0.00,,SKC,0.00,VWS V14.01,2013-07-10 09:17:00,
2013-07-10 05:19:00,67.8,66.3,29.97,SW,216,0.0,0.0,95,0.00,,SKC,0.00,VWS V14.01,2013-07-10 09:19:00,
2013-07-10 05:20:00,67.8,66.3,29.97,SW,215,0.0,0.0,95,0.00,,SKC,0.00,VWS V14.01,2013-07-10 09:20:00,
2013-07-10 05:23:00,67.8,66.3,29.97,SSW,212,0.0,0.0,95,0.00,,SKC,0.00,VWS V14.01,2013-07-10 09:23:00,
2013-07-10 05:24:00,67.8,66.3,29.97,SSW,210,0.0,0.0,95,0.00,,SKC,0.00,VWS V14.01,2013-07-10 09:24:00,
2013-07-10 05:25:00,67.8,66.3,29.97,SSW,209,0.0,0.0,95,0.00,,SKC,0.00,VWS V14.01,2013-07-10 09:25:00,
2013-07-10 05:26:00,67.8,66.3,29.97,SSW,212,0.0,0.0,95,0.00,,SKC,0.00,VWS V14.01,2013-07-10 09:26:00,
2013-07-10 05:28:00,67.8,66.3,29.97,SSW,213,0.0,0.0,95,0.00,,SKC,0.00,VWS V14.01,2013-07-10 09:28:00,
2013-07-10 05:29:00,67.8,66.3,29.97,SW,216,0.0,0.0,95,0.00,,SKC,0.00,VWS V14.01,2013-07-10 09:29:00,
2013-07-10 05:30:00,67.9,66.4,29.96,SSW,210,0.0,0.0,95,0.00,,SKC,0.00,VWS V14.01,2013-07-10 09:30:00,
2013-07-10 05:31:00,67.9,66.4,29.96,SSW,213,0.0,0.0,95,0.00,,SKC,0.00,VWS V14.01,2013-07-10 09:31:00,
2013-07-10 05:33:00,67.9,66.4,29.96,SSW,212,0.0,0.0,95,0.00,,SKC,0.00,VWS V14.01,2013-07-10 09:33:00,
2013-07-10 05:34:00,67.9,66.4,29.96,SSW,212,0.0,0.0,95,0.00,,SKC,0.00,VWS V14.01,2013-07-10 09:34:00,
2013-07-10 05:36:00,67.9,66.4,29.96,SSW,208,0.0,0.0,95,0.00,,SKC,0.00,VWS V14.01,2013-07-10 09:36:00,
2013-07-10 05:38:00,67.9,66.4,29.96,SSW,213,0.0,0.0,95,0.00,,SKC,0.00,VWS V14.01,2013-07-10 09:38:00,
2013-07-10 05:39:00,67.9,66.4,29.96,SSW,209,0.0,0.0,95,0.00,,SKC,0.00,VWS V14.01,2013-07-10 09:39:00,
2013-07-10 05:41:00,67.9,66.4,29.96,SSW,212,0.0,0.0,95,0.00,,SKC,0.00,VWS V14.01,2013-07-10 09:41:00,
2013-07-10 05:42:00,67.9,66.4,29.96,SW,215,0.0,0.0,95,0.00,,SKC,0.00,VWS V14.01,2013-07-10 09:42:00,
2013-07-10 05:43:00,67.9,66.4,29.96,SSW,210,0.0,0.0,95,0.00,,SKC,0.00,VWS V14.01,2013-07-10 09:43:00,
2013-07-10 05:44:00,67.9,66.4,29.96,SW,215,0.0,0.0,95,0.00,,SKC,0.00,VWS V14.01,2013-07-10 09:44:00,
2013-07-10 05:45:00,67.9,66.4,29.96,SSW,212,0.0,0.0,95,0.00,,SKC,0.00,VWS V14.01,2013-07-10 09:45:00,
2013-07-10 05:47:00,67.9,66.4,29.96,SSW,205,0.0,2.0,95,0.00,,SKC,0.00,VWS V14.01,2013-07-10 09:47:00,
2013-07-10 05:48:00,67.9,66.4,29.96,SSW,213,0.0,2.0,95,0.00,,SKC,0.00,VWS V14.01,2013-07-10 09:48:00,
2013-07-10 05:49:00,67.9,66.4,29.96,SSW,209,0.0,2.0,95,0.00,,SKC,0.00,VWS V14.01,2013-07-10 09:49:00,
2013-07-10 05:50:00,67.9,66.4,29.96,SSW,212,0.0,2.0,95,0.00,,SKC,0.00,VWS V14.01,2013-07-10 09:50:00,
2013-07-10 05:52:00,67.9,66.4,29.96,SW,215,0.0,0.0,95,0.00,,SKC,0.00,VWS V14.01,2013-07-10 09:52:00,
2013-07-10 05:53:00,67.9,66.4,29.96,SSW,213,0.0,0.0,95,0.00,,SKC,0.00,VWS V14.01,2013-07-10 09:53:00,
2013-07-10 05:54:00,67.9,66.4,29.96,SSW,208,0.0,0.0,95,0.00,,SKC,0.00,VWS V14.01,2013-07-10 09:54:00,
2013-07-10 05:55:00,68.1,66.6,29.96,SW,219,0.0,0.0,95,0.00,,SKC,0.00,VWS V14.01,2013-07-10 09:55:00,
2013-07-10 05:57:00,68.1,66.6,29.96,SW,216,0.0,0.0,95,0.00,,SKC,0.00,VWS V14.01,2013-07-10 09:57:00,
2013-07-10 05:58:00,68.1,66.6,29.96,SW,215,0.0,0.0,95,0.00,,SKC,0.00,VWS V14.01,2013-07-10 09:58:00,
2013-07-10 05:59:00,68.1,66.6,29.96,SW,216,0.0,0.0,95,0.00,,SKC,0.00,VWS V14.01,2013-07-10 09:59:00,
2013-07-10 06:01:00,68.1,66.6,29.97,SW,215,0.0,0.0,95,0.00,,SKC,0.00,VWS V14.01,2013-07-10 10:01:00,
2013-07-10 06:03:00,68.1,66.6,29.97,SW,216,0.0,0.0,95,0.00,,SKC,0.00,VWS V14.01,2013-07-10 10:03:00,
2013-07-10 06:04:00,68.1,66.6,29.97,SW,217,0.0,0.0,95,0.00,,SKC,0.00,VWS V14.01,2013-07-10 10:04:00,
2013-07-10 06:06:00,68.1,66.6,29.97,SW,219,0.0,0.0,95,0.00,,SKC,0.00,VWS V14.01,2013-07-10 10:06:00,
2013-07-10 06:07:00,68.1,66.6,29.97,SSW,212,0.0,0.0,95,0.00,,SKC,0.00,VWS V14.01,2013-07-10 10:07:00,
2013-07-10 06:08:00,68.3,66.8,29.97,SW,217,0.0,0.0,95,0.00,,SKC,0.00,VWS V14.01,2013-07-10 10:08:00,
2013-07-10 06:09:00,68.3,66.8,29.97,SW,219,0.0,0.0,95,0.00,,SKC,0.00,VWS V14.01,2013-07-10 10:09:00,
2013-07-10 06:11:00,68.3,66.8,29.97,SSW,212,0.0,0.0,95,0.00,,SKC,0.00,VWS V14.01,2013-07-10 10:11:00,
2013-07-10 06:12:00,68.3,66.8,29.97,SSW,212,0.0,0.0,95,0.00,,SKC,0.00,VWS V14.01,2013-07-10 10:12:00,
2013-07-10 06:13:00,68.3,66.8,29.97,SW,217,0.0,0.0,95,0.00,,SKC,0.00,VWS V14.01,2013-07-10 10:13:00,
2013-07-10 06:14:00,68.3,66.8,29.97,SW,217,0.0,0.0,95,0.00,,SKC,0.00,VWS V14.01,2013-07-10 10:14:00,
2013-07-10 06:16:00,68.3,66.8,29.97,SW,216,0.0,0.0,95,0.00,,SKC,0.00,VWS V14.01,2013-07-10 10:16:00,
2013-07-10 06:18:00,68.3,66.8,29.97,SSW,212,0.0,0.0,95,0.00,,SKC,0.00,VWS V14.01,2013-07-10 10:18:00,
2013-07-10 06:19:00,68.4,66.9,29.97,SSW,209,0.0,0.0,95,0.00,,SKC,0.00,VWS V14.01,2013-07-10 10:19:00,
2013-07-10 06:22:00,68.4,66.9,29.97,SSW,210,0.0,0.0,95,0.00,,SKC,0.00,VWS V14.01,2013-07-10 10:22:00,
2013-07-10 06:23:00,68.4,66.9,29.97,SSW,205,0.0,0.0,95,0.00,,SKC,0.00,VWS V14.01,2013-07-10 10:23:00,
2013-07-10 06:24:00,68.4,66.9,29.97,SSW,210,0.0,0.0,95,0.00,,SKC,0.00,VWS V14.01,2013-07-10 10:24:00,
2013-07-10 06:25:00,68.4,66.9,29.97,SSW,212,0.0,0.0,95,0.00,,SKC,0.00,VWS V14.01,2013-07-10 10:25:00,
2013-07-10 06:27:00,68.4,66.9,29.97,SW,215,0.0,0.0,95,0.00,,SKC,0.00,VWS V14.01,2013-07-10 10:27:00,
2013-07-10 06:28:00,68.4,66.9,29.97,SSW,213,0.0,0.0,95,0.00,,SKC,0.00,VWS V14.01,2013-07-10 10:28:00,
2013-07-10 06:29:00,68.4,66.9,29.97,SSW,210,0.0,0.0,95,0.00,,SKC,0.00,VWS V14.01,2013-07-10 10:29:00,
2013-07-10 06:30:00,68.4,66.9,29.97,SSW,210,0.0,0.0,95,0.00,,SKC,0.00,VWS V14.01,2013-07-10 10:30:00,
2013-07-10 06:33:00,68.4,66.9,29.97,SSW,208,0.0,0.0,95,0.00,,SKC,0.00,VWS V14.01,2013-07-10 10:33:00,
2013-07-10 06:35:00,68.4,66.9,29.97,SW,217,0.0,0.0,95,0.00,,SKC,0.00,VWS V14.01,2013-07-10 10:35:00,
2013-07-10 06:38:00,68.6,67.1,29.97,SW,215,0.0,0.0,95,0.00,,SKC,0.00,VWS V14.01,2013-07-10 10:38:00,
2013-07-10 06:39:00,68.6,67.1,29.97,SW,219,0.0,0.0,95,0.00,,SKC,0.00,VWS V14.01,2013-07-10 10:39:00,
2013-07-10 06:40:00,68.6,67.1,29.97,SW,219,0.0,0.0,95,0.00,,SKC,0.00,VWS V14.01,2013-07-10 10:40:00,
2013-07-10 06:41:00,68.6,67.4,29.97,SW,219,0.0,0.0,96,0.00,,SKC,0.00,VWS V14.01,2013-07-10 10:41:00,
2013-07-10 06:43:00,68.6,67.1,29.97,SSW,213,0.0,0.0,95,0.00,,SKC,0.00,VWS V14.01,2013-07-10 10:43:00,
2013-07-10 06:44:00,68.6,67.1,29.97,SW,220,0.0,0.0,95,0.00,,SKC,0.00,VWS V14.01,2013-07-10 10:44:00,
2013-07-10 06:45:00,68.6,67.4,29.97,SW,216,0.0,0.0,96,0.00,,SKC,0.00,VWS V14.01,2013-07-10 10:45:00,
2013-07-10 06:46:00,68.6,67.4,29.97,SW,217,0.0,0.0,96,0.00,,SKC,0.00,VWS V14.01,2013-07-10 10:46:00,
2013-07-10 06:48:00,68.6,67.4,29.97,SSW,213,0.0,0.0,96,0.00,,SKC,0.00,VWS V14.01,2013-07-10 10:48:00,
2013-07-10 06:49:00,68.6,67.4,29.97,SW,219,0.0,0.0,96,0.00,,SKC,0.00,VWS V14.01,2013-07-10 10:49:00,
2013-07-10 06:50:00,68.6,67.4,29.97,SW,219,0.0,0.0,96,0.00,,SKC,0.00,VWS V14.01,2013-07-10 10:50:00,
2013-07-10 06:51:00,68.6,67.4,29.97,SW,215,0.0,0.0,96,0.00,,SKC,0.00,VWS V14.01,2013-07-10 10:51:00,
2013-07-10 06:53:00,68.6,67.4,29.97,SW,220,0.0,0.0,96,0.00,,SKC,0.00,VWS V14.01,2013-07-10 10:53:00,
2013-07-10 06:54:00,68.6,67.4,29.97,SW,219,0.0,0.0,96,0.00,,SKC,0.00,VWS V14.01,2013-07-10 10:54:00,
2013-07-10 06:55:00,68.6,67.4,29.97,SW,219,0.0,0.0,96,0.00,,SKC,0.00,VWS V14.01,2013-07-10 10:55:00,
2013-07-10 06:56:00,68.6,67.4,29.97,SW,219,0.0,0.0,96,0.00,,SKC,0.00,VWS V14.01,2013-07-10 10:56:00,
2013-07-10 06:57:00,68.8,67.6,29.97,SW,219,0.0,0.0,96,0.00,,SKC,0.00,VWS V14.01,2013-07-10 10:57:00,
2013-07-10 06:59:00,68.8,67.6,29.97,SW,219,0.0,0.0,96,0.00,,SKC,0.00,VWS V14.01,2013-07-10 10:59:00,
2013-07-10 07:00:00,68.8,67.6,29.96,SW,216,0.0,0.0,96,0.00,,SKC,0.00,VWS V14.01,2013-07-10 11:00:00,
2013-07-10 07:02:00,68.8,67.6,29.96,SW,219,0.0,0.0,96,0.00,,SKC,0.00,VWS V14.01,2013-07-10 11:02:00,
2013-07-10 07:03:00,68.8,67.6,29.96,SW,217,0.0,0.0,96,0.00,,SKC,0.00,VWS V14.01,2013-07-10 11:03:00,
2013-07-10 07:04:00,68.8,67.6,29.96,SW,217,0.0,0.0,96,0.00,,SKC,0.00,VWS V14.01,2013-07-10 11:04:00,
2013-07-10 07:06:00,68.9,67.7,29.96,SSW,213,0.0,0.0,96,0.00,,SKC,0.00,VWS V14.01,2013-07-10 11:06:00,
2013-07-10 07:07:00,68.9,67.7,29.96,SW,215,0.0,0.0,96,0.00,,SKC,0.00,VWS V14.01,2013-07-10 11:07:00,
2013-07-10 07:08:00,68.9,67.7,29.96,SW,216,0.0,0.0,96,0.00,,SKC,0.00,VWS V14.01,2013-07-10 11:08:00,
2013-07-10 07:10:00,68.9,67.7,29.96,SSW,213,0.0,0.0,96,0.00,,SKC,0.00,VWS V14.01,2013-07-10 11:10:00,
2013-07-10 07:11:00,68.9,67.7,29.96,SW,217,0.0,0.0,96,0.00,,SKC,0.00,VWS V14.01,2013-07-10 11:11:00,
2013-07-10 07:12:00,68.9,67.7,29.96,SSW,213,0.0,0.0,96,0.00,,SKC,0.00,VWS V14.01,2013-07-10 11:12:00,
2013-07-10 07:14:00,68.9,67.7,29.96,SW,216,0.0,0.0,96,0.00,,SKC,0.00,VWS V14.01,2013-07-10 11:14:00,
2013-07-10 07:15:00,68.9,67.7,29.97,SW,216,0.0,0.0,96,0.00,,SKC,0.00,VWS V14.01,2013-07-10 11:15:00,
2013-07-10 07:16:00,68.9,67.7,29.97,SW,217,0.0,0.0,96,0.00,,SKC,0.00,VWS V14.01,2013-07-10 11:16:00,
2013-07-10 07:17:00,68.9,67.7,29.97,SSW,213,0.0,0.0,96,0.00,,SKC,0.00,VWS V14.01,2013-07-10 11:17:00,
2013-07-10 07:18:00,68.9,67.7,29.97,SSW,213,0.0,0.0,96,0.00,,SKC,0.00,VWS V14.01,2013-07-10 11:18:00,
2013-07-10 07:20:00,68.9,67.7,29.97,SW,217,0.0,0.0,96,0.00,,SKC,0.00,VWS V14.01,2013-07-10 11:20:00,
2013-07-10 07:21:00,68.9,67.7,29.97,SW,217,0.0,0.0,96,0.00,,SKC,0.00,VWS V14.01,2013-07-10 11:21:00,
2013-07-10 07:22:00,68.9,67.7,29.97,SSW,210,0.0,0.0,96,0.00,,SKC,0.00,VWS V14.01,2013-07-10 11:22:00,
2013-07-10 07:23:00,68.9,67.7,29.97,SSW,212,0.0,0.0,96,0.00,,SKC,0.00,VWS V14.01,2013-07-10 11:23:00,
2013-07-10 07:25:00,68.9,67.7,29.97,SW,215,0.0,0.0,96,0.00,,SKC,0.00,VWS V14.01,2013-07-10 11:25:00,
2013-07-10 07:26:00,69.1,67.9,29.97,SW,215,0.0,0.0,96,0.00,,SKC,0.00,VWS V14.01,2013-07-10 11:26:00,
2013-07-10 07:27:00,69.1,67.9,29.97,SSW,213,0.0,0.0,96,0.00,,SKC,0.00,VWS V14.01,2013-07-10 11:27:00,
2013-07-10 07:28:00,69.1,67.9,29.97,SSW,212,0.0,0.0,96,0.00,,SKC,0.00,VWS V14.01,2013-07-10 11:28:00,
2013-07-10 07:29:00,69.1,67.9,29.97,SW,217,0.0,0.0,96,0.00,,SKC,0.00,VWS V14.01,2013-07-10 11:29:00,
2013-07-10 07:31:00,69.1,67.9,29.96,SSW,213,0.0,0.0,96,0.00,,SKC,0.00,VWS V14.01,2013-07-10 11:31:00,
2013-07-10 07:32:00,69.1,67.9,29.96,SW,219,0.0,0.0,96,0.00,,SKC,0.00,VWS V14.01,2013-07-10 11:32:00,
2013-07-10 07:33:00,69.1,67.9,29.96,SW,219,0.0,0.0,96,0.00,,SKC,0.00,VWS V14.01,2013-07-10 11:33:00,
2013-07-10 07:34:00,69.3,68.1,29.96,SSW,213,0.0,0.0,96,0.00,,SKC,0.00,VWS V14.01,2013-07-10 11:34:00,
2013-07-10 07:36:00,69.3,68.1,29.96,SW,216,0.0,0.0,96,0.00,,SKC,0.00,VWS V14.01,2013-07-10 11:36:00,
2013-07-10 07:37:00,69.3,68.1,29.96,SSW,213,0.0,0.0,96,0.00,,SKC,0.00,VWS V14.01,2013-07-10 11:37:00,
2013-07-10 07:38:00,69.3,68.1,29.96,SW,215,0.0,0.0,96,0.00,,SKC,0.00,VWS V14.01,2013-07-10 11:38:00,
2013-07-10 07:39:00,69.3,68.1,29.96,SW,216,0.0,0.0,96,0.00,,SKC,0.00,VWS V14.01,2013-07-10 11:39:00,
2013-07-10 07:41:00,69.3,68.1,29.96,SW,217,0.0,0.0,96,0.00,,SKC,0.00,VWS V14.01,2013-07-10 11:41:00,
2013-07-10 07:42:00,69.3,68.1,29.96,SW,220,0.0,0.0,96,0.00,,SKC,0.00,VWS V14.01,2013-07-10 11:42:00,
2013-07-10 07:43:00,69.3,68.1,29.96,SW,220,0.0,0.0,96,0.00,,SKC,0.00,VWS V14.01,2013-07-10 11:43:00,
2013-07-10 07:44:00,69.3,68.1,29.96,SW,219,0.0,0.0,96,0.00,,SKC,0.00,VWS V14.01,2013-07-10 11:44:00,
2013-07-10 07:47:00,69.4,68.2,29.96,SW,227,0.0,0.0,96,0.00,,SKC,0.00,VWS V14.01,2013-07-10 11:47:00,
2013-07-10 07:48:00,69.4,68.2,29.96,SW,216,0.0,0.0,96,0.00,,SKC,0.00,VWS V14.01,2013-07-10 11:48:00,
2013-07-10 07:49:00,69.4,68.2,29.96,SW,216,0.0,0.0,96,0.00,,SKC,0.00,VWS V14.01,2013-07-10 11:49:00,
2013-07-10 07:50:00,69.4,68.2,29.96,SSW,212,0.0,0.0,96,0.00,,SKC,0.00,VWS V14.01,2013-07-10 11:50:00,
2013-07-10 07:52:00,69.4,68.2,29.96,SW,224,0.0,0.0,96,0.00,,SKC,0.00,VWS V14.01,2013-07-10 11:52:00,
2013-07-10 07:53:00,69.4,68.2,29.96,SW,223,0.0,0.0,96,0.00,,SKC,0.00,VWS V14.01,2013-07-10 11:53:00,
2013-07-10 07:54:00,69.6,68.4,29.96,SW,219,0.0,0.0,96,0.00,,SKC,0.00,VWS V14.01,2013-07-10 11:54:00,
2013-07-10 07:56:00,69.6,68.4,29.96,SW,219,0.0,0.0,96,0.00,,SKC,0.00,VWS V14.01,2013-07-10 11:56:00,
2013-07-10 07:57:00,69.6,68.4,29.96,SW,219,0.0,0.0,96,0.00,,SKC,0.00,VWS V14.01,2013-07-10 11:57:00,
2013-07-10 07:58:00,69.6,68.4,29.96,SW,224,0.0,0.0,96,0.00,,SKC,0.00,VWS V14.01,2013-07-10 11:58:00,
2013-07-10 07:59:00,69.6,68.4,29.96,SW,220,0.0,0.0,96,0.00,,SKC,0.00,VWS V14.01,2013-07-10 11:59:00,
2013-07-10 08:01:00,69.8,68.6,29.95,SW,220,0.0,0.0,96,0.00,,SKC,0.00,VWS V14.01,2013-07-10 12:01:00,
2013-07-10 08:03:00,69.8,68.6,29.95,SW,224,0.0,0.0,96,0.00,,SKC,0.00,VWS V14.01,2013-07-10 12:03:00,
2013-07-10 08:04:00,69.8,68.6,29.95,SW,224,0.0,0.0,96,0.00,,SKC,0.00,VWS V14.01,2013-07-10 12:04:00,
2013-07-10 08:07:00,69.8,68.6,29.95,SW,215,0.0,0.0,96,0.00,,SKC,0.00,VWS V14.01,2013-07-10 12:07:00,
2013-07-10 08:08:00,69.9,68.7,29.95,SW,219,0.0,0.0,96,0.00,,SKC,0.00,VWS V14.01,2013-07-10 12:08:00,
2013-07-10 08:09:00,69.9,68.7,29.95,SW,233,0.0,0.0,96,0.00,,SKC,0.00,VWS V14.01,2013-07-10 12:09:00,
2013-07-10 08:11:00,69.9,68.7,29.95,SW,227,0.0,0.0,96,0.00,,SKC,0.00,VWS V14.01,2013-07-10 12:11:00,
2013-07-10 08:12:00,69.9,68.7,29.95,SW,230,0.0,0.0,96,0.00,,SKC,0.00,VWS V14.01,2013-07-10 12:12:00,
2013-07-10 08:13:00,70.1,68.9,29.95,WSW,237,0.0,0.0,96,0.00,,SKC,0.00,VWS V14.01,2013-07-10 12:13:00,
2013-07-10 08:15:00,70.1,68.9,29.96,WSW,239,0.0,0.0,96,0.00,,SKC,0.00,VWS V14.01,2013-07-10 12:15:00,
2013-07-10 08:16:00,70.1,68.9,29.96,SW,234,0.0,0.0,96,0.00,,SKC,0.00,VWS V14.01,2013-07-10 12:16:00,
2013-07-10 08:17:00,70.1,68.9,29.96,SW,234,0.0,0.0,96,0.00,,SKC,0.00,VWS V14.01,2013-07-10 12:17:00,
2013-07-10 08:18:00,70.1,68.9,29.96,SW,234,0.0,0.0,96,0.00,,SKC,0.00,VWS V14.01,2013-07-10 12:18:00,
2013-07-10 08:20:00,70.1,68.9,29.96,SW,232,0.0,0.0,96,0.00,,SKC,0.00,VWS V14.01,2013-07-10 12:20:00,
2013-07-10 08:22:00,70.1,68.9,29.96,SW,232,0.0,0.0,96,0.00,,SKC,0.00,VWS V14.01,2013-07-10 12:22:00,
2013-07-10 08:25:00,70.1,68.9,29.96,SW,230,0.0,0.0,96,0.00,,SKC,0.00,VWS V14.01,2013-07-10 12:25:00,
2013-07-10 08:27:00,70.3,69.1,29.96,SW,233,0.0,0.0,96,0.00,,SKC,0.00,VWS V14.01,2013-07-10 12:27:00,
2013-07-10 08:30:00,70.4,69.2,29.95,SW,234,0.0,0.0,96,0.00,,SKC,0.00,VWS V14.01,2013-07-10 12:30:00,
2013-07-10 08:31:00,70.4,69.2,29.95,SW,224,0.0,0.0,96,0.00,,SKC,0.00,VWS V14.01,2013-07-10 12:31:00,
2013-07-10 08:32:00,70.4,69.2,29.95,SW,234,0.0,0.0,96,0.00,,SKC,0.00,VWS V14.01,2013-07-10 12:32:00,
2013-07-10 08:33:00,70.4,69.2,29.95,WSW,237,0.0,0.0,96,0.00,,SKC,0.00,VWS V14.01,2013-07-10 12:33:00,
2013-07-10 08:35:00,70.6,69.4,29.95,SW,236,0.0,0.0,96,0.00,,SKC,0.00,VWS V14.01,2013-07-10 12:35:00,
2013-07-10 08:36:00,70.6,69.4,29.95,SW,234,0.0,0.0,96,0.00,,SKC,0.00,VWS V14.01,2013-07-10 12:36:00,
2013-07-10 08:38:00,70.6,69.4,29.95,SW,233,0.0,0.0,96,0.00,,SKC,0.00,VWS V14.01,2013-07-10 12:38:00,
2013-07-10 08:40:00,70.6,69.4,29.95,SW,236,0.0,0.0,96,0.00,,SKC,0.00,VWS V14.01,2013-07-10 12:40:00,
2013-07-10 08:41:00,70.8,69.6,29.95,WSW,239,0.0,0.0,96,0.00,,SKC,0.00,VWS V14.01,2013-07-10 12:41:00,
2013-07-10 08:42:00,70.8,69.6,29.95,SW,232,0.0,0.0,96,0.00,,SKC,0.00,VWS V14.01,2013-07-10 12:42:00,
2013-07-10 08:43:00,70.8,69.6,29.95,WSW,240,0.0,0.0,96,0.00,,SKC,0.00,VWS V14.01,2013-07-10 12:43:00,
2013-07-10 08:45:00,70.9,69.7,29.95,SW,236,0.0,0.0,96,0.00,,SKC,0.00,VWS V14.01,2013-07-10 12:45:00,
2013-07-10 08:46:00,70.9,69.7,29.95,WSW,237,0.0,0.0,96,0.00,,SKC,0.00,VWS V14.01,2013-07-10 12:46:00,
2013-07-10 08:47:00,70.9,69.7,29.95,WSW,237,0.0,0.0,96,0.00,,SKC,0.00,VWS V14.01,2013-07-10 12:47:00,
2013-07-10 08:48:00,70.9,69.7,29.95,WSW,237,0.0,0.0,96,0.00,,SKC,0.00,VWS V14.01,2013-07-10 12:48:00,
2013-07-10 08:49:00,70.9,69.7,29.95,SW,233,0.0,0.0,96,0.00,,SKC,0.00,VWS V14.01,2013-07-10 12:49:00,
2013-07-10 08:50:00,71.1,69.9,29.95,SW,234,0.0,0.0,96,0.00,,SKC,0.00,VWS V14.01,2013-07-10 12:50:00,
2013-07-10 08:51:00,71.1,69.9,29.95,WSW,240,0.0,0.0,96,0.00,,SKC,0.00,VWS V14.01,2013-07-10 12:51:00,
2013-07-10 08:53:00,71.1,69.9,29.95,SW,234,0.0,0.0,96,0.00,,SKC,0.00,VWS V14.01,2013-07-10 12:53:00,
2013-07-10 08:54:00,71.3,70.1,29.95,SW,232,0.0,0.0,96,0.00,,SKC,0.00,VWS V14.01,2013-07-10 12:54:00,
2013-07-10 08:55:00,71.3,70.1,29.95,SW,236,0.0,0.0,96,0.00,,SKC,0.00,VWS V14.01,2013-07-10 12:55:00,
2013-07-10 08:57:00,71.3,70.1,29.95,SW,234,0.0,0.0,96,0.00,,SKC,0.00,VWS V14.01,2013-07-10 12:57:00,
2013-07-10 08:58:00,71.3,70.1,29.95,SW,234,0.0,0.0,96,0.00,,SKC,0.00,VWS V14.01,2013-07-10 12:58:00,
2013-07-10 08:59:00,71.3,70.1,29.95,SW,233,0.0,0.0,96,0.00,,SKC,0.00,VWS V14.01,2013-07-10 12:59:00,
2013-07-10 09:00:00,71.3,70.1,29.94,SW,233,0.0,0.0,96,0.00,,SKC,0.00,VWS V14.01,2013-07-10 13:00:00,
2013-07-10 09:01:00,71.3,70.1,29.94,SW,234,0.0,0.0,96,0.00,,SKC,0.00,VWS V14.01,2013-07-10 13:01:00,
2013-07-10 09:03:00,71.6,70.4,29.94,WSW,240,0.0,0.0,96,0.00,,SKC,0.00,VWS V14.01,2013-07-10 13:03:00,
2013-07-10 09:04:00,71.6,70.4,29.94,WSW,240,0.0,0.0,96,0.00,,SKC,0.00,VWS V14.01,2013-07-10 13:04:00,
2013-07-10 09:05:00,71.6,70.4,29.94,WSW,237,0.0,0.0,96,0.00,,SKC,0.00,VWS V14.01,2013-07-10 13:05:00,
2013-07-10 09:06:00,71.8,70.6,29.94,SW,233,0.0,0.0,96,0.00,,SKC,0.00,VWS V14.01,2013-07-10 13:06:00,
2013-07-10 09:08:00,71.8,70.6,29.94,SW,236,0.0,0.0,96,0.00,,SKC,0.00,VWS V14.01,2013-07-10 13:08:00,
2013-07-10 09:09:00,71.8,70.6,29.94,SW,234,0.0,0.0,96,0.00,,SKC,0.00,VWS V14.01,2013-07-10 13:09:00,
2013-07-10 09:10:00,72.0,70.8,29.94,SW,234,0.0,0.0,96,0.00,,SKC,0.00,VWS V14.01,2013-07-10 13:10:00,
2013-07-10 09:11:00,72.0,70.8,29.94,SW,236,0.0,0.0,96,0.00,,SKC,0.00,VWS V14.01,2013-07-10 13:11:00,
2013-07-10 09:13:00,72.1,70.9,29.94,SW,229,0.0,0.0,96,0.00,,SKC,0.00,VWS V14.01,2013-07-10 13:13:00,
2013-07-10 09:14:00,72.1,70.9,29.94,SW,234,0.0,0.0,96,0.00,,SKC,0.00,VWS V14.01,2013-07-10 13:14:00,
2013-07-10 09:15:00,72.1,70.9,29.94,WSW,237,0.0,0.0,96,0.00,,SKC,0.00,VWS V14.01,2013-07-10 13:15:00,
2013-07-10 09:16:00,72.3,71.1,29.94,WSW,239,0.0,0.0,96,0.00,,SKC,0.00,VWS V14.01,2013-07-10 13:16:00,
2013-07-10 09:17:00,72.3,71.1,29.94,SW,234,0.0,0.0,96,0.00,,SKC,0.00,VWS V14.01,2013-07-10 13:17:00,
2013-07-10 09:18:00,72.3,71.1,29.94,WSW,237,0.0,0.0,96,0.00,,SKC,0.00,VWS V14.01,2013-07-10 13:18:00,
2013-07-10 09:19:00,72.3,71.1,29.94,SW,236,0.0,0.0,96,0.00,,SKC,0.00,VWS V14.01,2013-07-10 13:19:00,
2013-07-10 09:20:00,72.3,71.1,29.94,SW,236,0.0,0.0,96,0.00,,SKC,0.00,VWS V14.01,2013-07-10 13:20:00,
2013-07-10 09:22:00,72.3,71.1,29.94,SW,232,0.0,0.0,96,0.00,,SKC,0.00,VWS V14.01,2013-07-10 13:22:00,
2013-07-10 09:23:00,72.3,71.1,29.94,SW,232,0.0,0.0,96,0.00,,SKC,0.00,VWS V14.01,2013-07-10 13:23:00,
2013-07-10 09:24:00,72.3,71.1,29.94,SW,227,0.0,0.0,96,0.00,,SKC,0.00,VWS V14.01,2013-07-10 13:24:00,
2013-07-10 09:25:00,72.3,71.1,29.94,SW,227,0.0,0.0,96,0.00,,SKC,0.00,VWS V14.01,2013-07-10 13:25:00,
2013-07-10 09:28:00,72.8,71.3,29.94,SW,226,0.0,0.0,95,0.00,,SKC,0.00,VWS V14.01,2013-07-10 13:28:00,
2013-07-10 09:29:00,72.8,71.3,29.94,SW,227,0.0,0.0,95,0.00,,SKC,0.00,VWS V14.01,2013-07-10 13:29:00,
2013-07-10 09:30:00,72.8,71.3,29.94,SW,226,0.0,0.0,95,0.00,,SKC,0.00,VWS V14.01,2013-07-10 13:30:00,
2013-07-10 09:31:00,73.0,71.5,29.94,SW,222,0.0,0.0,95,0.00,,SKC,0.00,VWS V14.01,2013-07-10 13:31:00,
2013-07-10 09:34:00,73.2,71.7,29.94,SW,222,0.0,0.0,95,0.00,,SKC,0.00,VWS V14.01,2013-07-10 13:34:00,
2013-07-10 09:35:00,73.2,71.7,29.94,SW,226,0.0,0.0,95,0.00,,SKC,0.00,VWS V14.01,2013-07-10 13:35:00,
2013-07-10 09:36:00,73.2,71.7,29.94,SW,223,0.0,0.0,95,0.00,,SKC,0.00,VWS V14.01,2013-07-10 13:36:00,
2013-07-10 09:39:00,73.2,71.7,29.94,SW,223,0.0,0.0,95,0.00,,SKC,0.00,VWS V14.01,2013-07-10 13:39:00,
2013-07-10 09:40:00,73.2,71.7,29.94,SW,219,0.0,0.0,95,0.00,,SKC,0.00,VWS V14.01,2013-07-10 13:40:00,
2013-07-10 09:41:00,73.3,71.5,29.94,SW,222,0.0,0.0,94,0.00,,SKC,0.00,VWS V14.01,2013-07-10 13:41:00,
2013-07-10 09:45:00,73.3,71.5,29.93,SW,224,0.0,0.0,94,0.00,,SKC,0.00,VWS V14.01,2013-07-10 13:45:00,
2013-07-10 09:46:00,73.3,71.5,29.93,SW,217,0.0,0.0,94,0.00,,SKC,0.00,VWS V14.01,2013-07-10 13:46:00,
2013-07-10 09:47:00,73.5,71.7,29.93,SW,223,0.0,0.0,94,0.00,,SKC,0.00,VWS V14.01,2013-07-10 13:47:00,
2013-07-10 09:50:00,73.9,72.1,29.93,SW,226,0.0,0.0,94,0.00,,SKC,0.00,VWS V14.01,2013-07-10 13:50:00,
2013-07-10 09:51:00,73.9,72.1,29.93,SW,220,0.0,1.0,94,0.00,,SKC,0.00,VWS V14.01,2013-07-10 13:51:00,
2013-07-10 09:52:00,74.0,71.8,29.93,SW,223,0.0,1.0,93,0.00,,SKC,0.00,VWS V14.01,2013-07-10 13:52:00,
2013-07-10 09:55:00,74.2,72.1,29.93,SW,230,0.0,3.0,93,0.00,,SKC,0.00,VWS V14.01,2013-07-10 13:55:00,
2013-07-10 09:56:00,74.2,71.7,29.93,SW,233,0.0,0.0,92,0.00,,SKC,0.00,VWS V14.01,2013-07-10 13:56:00,
2013-07-10 09:57:00,74.4,71.9,29.93,SW,230,0.0,0.0,92,0.00,,SKC,0.00,VWS V14.01,2013-07-10 13:57:00,
2013-07-10 10:00:00,74.6,72.1,29.92,SW,232,0.0,0.0,92,0.00,,SKC,0.00,VWS V14.01,2013-07-10 14:00:00,
2013-07-10 10:02:00,74.6,71.8,29.92,SW,230,0.0,0.0,91,0.00,,SKC,0.00,VWS V14.01,2013-07-10 14:02:00,
2013-07-10 10:03:00,74.6,71.8,29.92,SW,232,0.0,0.0,91,0.00,,SKC,0.00,VWS V14.01,2013-07-10 14:03:00,
2013-07-10 10:05:00,74.6,71.5,29.92,SW,232,0.0,0.0,90,0.00,,SKC,0.00,VWS V14.01,2013-07-10 14:05:00,
2013-07-10 10:07:00,74.7,71.6,29.92,SW,227,0.0,0.0,90,0.00,,SKC,0.00,VWS V14.01,2013-07-10 14:07:00,
2013-07-10 10:09:00,75.1,72.0,29.92,SW,230,0.0,0.0,90,0.00,,SKC,0.00,VWS V14.01,2013-07-10 14:09:00,
2013-07-10 10:10:00,75.3,71.8,29.92,SW,232,0.0,0.0,89,0.00,,SKC,0.00,VWS V14.01,2013-07-10 14:10:00,
2013-07-10 10:11:00,75.3,71.8,29.92,SW,232,0.0,0.0,89,0.00,,SKC,0.00,VWS V14.01,2013-07-10 14:11:00,
2013-07-10 10:12:00,75.6,71.8,29.92,SW,230,0.0,0.0,88,0.00,,SKC,0.00,VWS V14.01,2013-07-10 14:12:00,
2013-07-10 10:14:00,75.8,72.0,29.92,SW,215,0.0,6.0,88,0.00,,SKC,0.00,VWS V14.01,2013-07-10 14:14:00,
2013-07-10 10:15:00,76.0,72.2,29.92,SW,220,0.0,6.0,88,0.00,,SKC,0.00,VWS V14.01,2013-07-10 14:15:00,
2013-07-10 10:17:00,76.1,71.6,29.92,SW,215,0.0,0.0,86,0.00,,SKC,0.00,VWS V14.01,2013-07-10 14:17:00,
2013-07-10 10:19:00,76.3,71.5,29.92,SW,227,0.0,3.0,85,0.00,,SKC,0.00,VWS V14.01,2013-07-10 14:19:00,
2013-07-10 10:20:00,76.3,71.1,29.92,SW,232,0.0,3.0,84,0.00,,SKC,0.00,VWS V14.01,2013-07-10 14:20:00,
2013-07-10 10:21:00,76.3,71.1,29.92,SW,230,0.0,0.0,84,0.00,,SKC,0.00,VWS V14.01,2013-07-10 14:21:00,
2013-07-10 10:22:00,76.5,71.0,29.92,SW,229,0.0,0.0,83,0.00,,SKC,0.00,VWS V14.01,2013-07-10 14:22:00,
2013-07-10 10:23:00,76.5,71.0,29.92,SW,229,0.0,0.0,83,0.00,,SKC,0.00,VWS V14.01,2013-07-10 14:23:00,
2013-07-10 10:24:00,76.7,71.2,29.92,SW,230,0.0,0.0,83,0.00,,SKC,0.00,VWS V14.01,2013-07-10 14:24:00,
2013-07-10 10:26:00,76.7,71.2,29.92,SW,233,0.0,1.0,83,0.00,,SKC,0.00,VWS V14.01,2013-07-10 14:26:00,
2013-07-10 10:28:00,76.8,70.9,29.92,SW,226,0.0,3.0,82,0.00,,SKC,0.00,VWS V14.01,2013-07-10 14:28:00,
2013-07-10 10:30:00,77.0,71.1,29.92,SW,227,0.0,3.0,82,0.00,,SKC,0.00,VWS V14.01,2013-07-10 14:30:00,
2013-07-10 10:31:00,77.0,71.1,29.92,SW,226,0.0,0.0,82,0.00,,SKC,0.00,VWS V14.01,2013-07-10 14:31:00,
2013-07-10 10:33:00,77.2,70.9,29.92,WSW,254,0.0,0.0,81,0.00,,SKC,0.00,VWS V14.01,2013-07-10 14:33:00,
2013-07-10 10:34:00,77.0,70.7,29.92,WSW,257,0.0,0.0,81,0.00,,SKC,0.00,VWS V14.01,2013-07-10 14:34:00,
2013-07-10 10:36:00,77.0,70.4,29.92,WSW,253,0.0,0.0,80,0.00,,SKC,0.00,VWS V14.01,2013-07-10 14:36:00,
2013-07-10 10:37:00,77.2,70.9,29.92,WSW,254,0.0,0.0,81,0.00,,SKC,0.00,VWS V14.01,2013-07-10 14:37:00,
2013-07-10 10:39:00,77.2,70.9,29.92,WSW,254,0.0,0.0,81,0.00,,SKC,0.00,VWS V14.01,2013-07-10 14:39:00,
2013-07-10 10:41:00,77.6,71.3,29.92,WSW,253,0.0,0.0,81,0.00,,SKC,0.00,VWS V14.01,2013-07-10 14:41:00,
2013-07-10 10:42:00,77.7,71.0,29.92,WSW,253,0.0,0.0,80,0.00,,SKC,0.00,VWS V14.01,2013-07-10 14:42:00,
2013-07-10 10:44:00,77.9,71.2,29.92,WSW,256,0.0,0.0,80,0.00,,SKC,0.00,VWS V14.01,2013-07-10 14:44:00,
2013-07-10 10:46:00,78.3,70.9,29.91,WSW,250,0.0,0.0,78,0.00,,SKC,0.00,VWS V14.01,2013-07-10 14:46:00,
2013-07-10 10:47:00,78.3,70.9,29.91,WSW,251,0.0,0.0,78,0.00,,SKC,0.00,VWS V14.01,2013-07-10 14:47:00,
2013-07-10 10:49:00,78.5,70.7,29.91,WSW,247,0.0,0.0,77,0.00,,SKC,0.00,VWS V14.01,2013-07-10 14:49:00,
2013-07-10 10:51:00,78.6,71.2,29.91,WSW,240,0.0,0.0,78,0.00,,SKC,0.00,VWS V14.01,2013-07-10 14:51:00,
2013-07-10 10:53:00,79.0,71.6,29.91,WSW,243,0.0,0.0,78,0.00,,SKC,0.00,VWS V14.01,2013-07-10 14:53:00,
2013-07-10 10:54:00,79.0,71.2,29.91,WSW,240,0.0,0.0,77,0.00,,SKC,0.00,VWS V14.01,2013-07-10 14:54:00,
2013-07-10 10:57:00,79.2,71.4,29.91,WSW,240,0.0,1.0,77,0.00,,SKC,0.00,VWS V14.01,2013-07-10 14:57:00,
2013-07-10 10:58:00,79.2,71.4,29.91,WSW,239,0.0,1.0,77,0.00,,SKC,0.00,VWS V14.01,2013-07-10 14:58:00,
2013-07-10 10:59:00,79.2,71.0,29.91,WSW,239,0.0,1.0,76,0.00,,SKC,0.00,VWS V14.01,2013-07-10 14:59:00,
2013-07-10 11:00:00,79.2,71.0,29.91,SW,236,0.0,1.0,76,0.00,,SKC,0.00,VWS V14.01,2013-07-10 15:00:00,
2013-07-10 11:02:00,79.6,71.4,29.91,WSW,239,0.0,0.0,76,0.00,,SKC,0.00,VWS V14.01,2013-07-10 15:02:00,
2013-07-10 11:04:00,79.6,71.4,29.91,SW,236,0.0,0.0,76,0.00,,SKC,0.00,VWS V14.01,2013-07-10 15:04:00,
2013-07-10 11:05:00,79.8,71.6,29.91,WSW,246,0.0,0.0,76,0.00,,SKC,0.00,VWS V14.01,2013-07-10 15:05:00,
2013-07-10 11:07:00,79.9,70.9,29.91,SW,223,0.0,0.0,74,0.00,,SKC,0.00,VWS V14.01,2013-07-10 15:07:00,
2013-07-10 11:09:00,80.1,70.7,29.91,SW,219,0.0,0.0,73,0.00,,SKC,0.00,VWS V14.01,2013-07-10 15:09:00,
2013-07-10 11:10:00,80.3,70.9,29.91,SW,216,0.0,1.0,73,0.00,,SKC,0.00,VWS V14.01,2013-07-10 15:10:00,
2013-07-10 11:12:00,80.3,70.9,29.91,SW,224,0.0,0.0,73,0.00,,SKC,0.00,VWS V14.01,2013-07-10 15:12:00,
2013-07-10 11:15:00,79.9,70.5,29.90,SSW,210,0.0,7.0,73,0.00,,SKC,0.00,VWS V14.01,2013-07-10 15:15:00,
2013-07-10 11:16:00,79.9,70.5,29.90,SW,216,0.0,0.0,73,0.00,,SKC,0.00,VWS V14.01,2013-07-10 15:16:00,
2013-07-10 11:17:00,79.9,70.9,29.90,SW,215,0.0,0.0,74,0.00,,SKC,0.00,VWS V14.01,2013-07-10 15:17:00,
2013-07-10 11:20:00,80.1,71.5,29.90,SW,217,0.0,0.0,75,0.00,,SKC,0.00,VWS V14.01,2013-07-10 15:20:00,
2013-07-10 11:21:00,80.1,71.5,29.90,SW,220,0.0,0.0,75,0.00,,SKC,0.00,VWS V14.01,2013-07-10 15:21:00,
2013-07-10 11:22:00,80.3,72.1,29.90,West,277,0.0,0.0,76,0.00,,SKC,0.00,VWS V14.01,2013-07-10 15:22:00,
2013-07-10 11:25:00,80.3,71.7,29.90,NNW,332,0.0,2.0,75,0.00,,SKC,0.00,VWS V14.01,2013-07-10 15:25:00,
2013-07-10 11:26:00,80.5,71.5,29.90,NNW,333,0.0,0.0,74,0.00,,SKC,0.00,VWS V14.01,2013-07-10 15:26:00,
2013-07-10 11:28:00,80.5,71.5,29.90,NNW,332,0.0,0.0,74,0.00,,SKC,0.00,VWS V14.01,2013-07-10 15:28:00,
2013-07-10 11:30:00,80.5,71.1,29.90,West,280,0.0,0.0,73,0.00,,SKC,0.00,VWS V14.01,2013-07-10 15:30:00,
2013-07-10 11:31:00,80.7,71.2,29.90,West,281,0.0,0.0,73,0.00,,SKC,0.00,VWS V14.01,2013-07-10 15:31:00,
2013-07-10 11:33:00,80.9,71.8,29.90,WNW,289,0.0,0.0,74,0.00,,SKC,0.00,VWS V14.01,2013-07-10 15:33:00,
2013-07-10 11:35:00,81.1,72.0,29.90,WNW,291,0.0,0.0,74,0.00,,SKC,0.00,VWS V14.01,2013-07-10 15:35:00,
2013-07-10 11:36:00,80.9,71.4,29.90,WNW,292,0.0,0.0,73,0.00,,SKC,0.00,VWS V14.01,2013-07-10 15:36:00,
2013-07-10 11:38:00,80.7,71.2,29.90,WNW,287,0.0,0.0,73,0.00,,SKC,0.00,VWS V14.01,2013-07-10 15:38:00,
2013-07-10 11:39:00,80.7,71.2,29.90,WNW,284,0.0,0.0,73,0.00,,SKC,0.00,VWS V14.01,2013-07-10 15:39:00,
2013-07-10 11:40:00,80.5,71.1,29.90,WNW,287,0.0,0.0,73,0.00,,SKC,0.00,VWS V14.01,2013-07-10 15:40:00,
2013-07-10 11:41:00,80.3,70.9,29.90,WNW,285,0.0,0.0,73,0.00,,SKC,0.00,VWS V14.01,2013-07-10 15:41:00,
2013-07-10 11:43:00,80.3,71.3,29.90,SW,236,0.0,0.0,74,0.00,,SKC,0.00,VWS V14.01,2013-07-10 15:43:00,
2013-07-10 11:44:00,80.3,71.3,29.90,SW,234,0.0,0.0,74,0.00,,SKC,0.00,VWS V14.01,2013-07-10 15:44:00,
2013-07-10 11:45:00,80.3,71.3,29.90,SW,236,0.0,0.0,74,0.00,,SKC,0.00,VWS V14.01,2013-07-10 15:45:00,
2013-07-10 11:46:00,80.1,71.1,29.90,WSW,237,0.0,1.0,74,0.00,,SKC,0.00,VWS V14.01,2013-07-10 15:46:00,
2013-07-10 11:48:00,80.1,71.1,29.90,SW,236,0.0,2.0,74,0.00,,SKC,0.00,VWS V14.01,2013-07-10 15:48:00,
2013-07-10 11:49:00,80.1,71.1,29.90,SW,236,0.0,2.0,74,0.00,,SKC,0.00,VWS V14.01,2013-07-10 15:49:00,
2013-07-10 11:51:00,80.3,71.3,29.90,SW,236,0.0,0.0,74,0.00,,SKC,0.00,VWS V14.01,2013-07-10 15:51:00,
2013-07-10 11:52:00,80.3,71.3,29.90,SW,234,0.0,3.0,74,0.00,,SKC,0.00,VWS V14.01,2013-07-10 15:52:00,
2013-07-10 11:54:00,80.5,71.1,29.90,SW,232,0.0,3.0,73,0.00,,SKC,0.00,VWS V14.01,2013-07-10 15:54:00,
2013-07-10 11:56:00,80.5,71.1,29.90,SW,236,0.0,0.0,73,0.00,,SKC,0.00,VWS V14.01,2013-07-10 15:56:00,
2013-07-10 11:57:00,80.5,71.1,29.90,SW,234,0.0,0.0,73,0.00,,SKC,0.00,VWS V14.01,2013-07-10 15:57:00,
2013-07-10 11:59:00,80.9,71.8,29.90,SW,230,0.0,0.0,74,0.00,,SKC,0.00,VWS V14.01,2013-07-10 15:59:00,
2013-07-10 12:00:00,80.9,71.4,29.89,SW,232,0.0,0.0,73,0.00,,SKC,0.00,VWS V14.01,2013-07-10 16:00:00,
2013-07-10 12:02:00,81.2,71.7,29.89,SW,232,0.0,1.0,73,0.00,,SKC,0.00,VWS V14.01,2013-07-10 16:02:00,
2013-07-10 12:05:00,81.4,71.5,29.89,SW,234,0.0,1.0,72,0.00,,SKC,0.00,VWS V14.01,2013-07-10 16:05:00,
2013-07-10 12:06:00,81.4,71.9,29.89,SW,234,0.0,0.0,73,0.00,,SKC,0.00,VWS V14.01,2013-07-10 16:06:00,
2013-07-10 12:07:00,81.4,71.5,29.89,WSW,237,0.0,0.0,72,0.00,,SKC,0.00,VWS V14.01,2013-07-10 16:07:00,
2013-07-10 12:08:00,81.4,71.5,29.89,SW,236,0.0,0.0,72,0.00,,SKC,0.00,VWS V14.01,2013-07-10 16:08:00,
2013-07-10 12:11:00,81.4,71.1,29.89,WSW,240,0.0,0.0,71,0.00,,SKC,0.00,VWS V14.01,2013-07-10 16:11:00,
2013-07-10 12:12:00,81.4,71.1,29.89,WSW,239,0.0,0.0,71,0.00,,SKC,0.00,VWS V14.01,2013-07-10 16:12:00,
2013-07-10 12:13:00,81.4,71.1,29.89,WSW,241,0.0,1.0,71,0.00,,SKC,0.00,VWS V14.01,2013-07-10 16:13:00,
2013-07-10 12:16:00,81.6,71.7,29.89,WSW,244,0.0,0.0,72,0.00,,SKC,0.00,VWS V14.01,2013-07-10 16:16:00,
2013-07-10 12:17:00,81.6,71.7,29.89,WSW,240,0.0,0.0,72,0.00,,SKC,0.00,VWS V14.01,2013-07-10 16:17:00,
2013-07-10 12:19:00,81.8,71.5,29.89,WSW,243,0.0,0.0,71,0.00,,SKC,0.00,VWS V14.01,2013-07-10 16:19:00,
2013-07-10 12:20:00,81.8,71.5,29.89,WSW,237,0.0,2.0,71,0.00,,SKC,0.00,VWS V14.01,2013-07-10 16:20:00,
2013-07-10 12:21:00,82.0,71.7,29.89,SW,236,0.0,0.0,71,0.00,,SKC,0.00,VWS V14.01,2013-07-10 16:21:00,
2013-07-10 12:23:00,82.0,71.3,29.89,WSW,239,0.0,0.0,70,0.00,,SKC,0.00,VWS V14.01,2013-07-10 16:23:00,
2013-07-10 12:24:00,82.0,71.7,29.89,WSW,240,0.0,0.0,71,0.00,,SKC,0.00,VWS V14.01,2013-07-10 16:24:00,
2013-07-10 12:26:00,82.2,71.9,29.89,WSW,240,0.0,0.0,71,0.00,,SKC,0.00,VWS V14.01,2013-07-10 16:26:00,
2013-07-10 12:28:00,82.4,72.5,29.89,WSW,243,0.0,0.0,72,0.00,,SKC,0.00,VWS V14.01,2013-07-10 16:28:00,
2013-07-10 12:30:00,82.6,72.2,29.88,SW,236,0.0,0.0,71,0.00,,SKC,0.00,VWS V14.01,2013-07-10 16:30:00,
2013-07-10 12:31:00,82.6,72.2,29.88,WSW,239,0.0,0.0,71,0.00,,SKC,0.00,VWS V14.01,2013-07-10 16:31:00,
2013-07-10 12:33:00,82.6,71.8,29.88,WSW,241,0.0,0.0,70,0.00,,SKC,0.00,VWS V14.01,2013-07-10 16:33:00,
2013-07-10 12:34:00,82.6,71.8,29.88,WSW,239,0.0,0.0,70,0.00,,SKC,0.00,VWS V14.01,2013-07-10 16:34:00,
2013-07-10 12:35:00,82.4,71.6,29.88,WSW,239,0.0,0.0,70,0.00,,SKC,0.00,VWS V14.01,2013-07-10 16:35:00,
2013-07-10 12:36:00,82.4,71.6,29.88,WSW,240,0.0,0.0,70,0.00,,SKC,0.00,VWS V14.01,2013-07-10 16:36:00,
2013-07-10 12:38:00,82.4,71.6,29.88,WSW,241,0.0,0.0,70,0.00,,SKC,0.00,VWS V14.01,2013-07-10 16:38:00,
2013-07-10 12:39:00,82.4,71.6,29.88,WSW,247,0.0,0.0,70,0.00,,SKC,0.00,VWS V14.01,2013-07-10 16:39:00,
2013-07-10 12:40:00,82.2,71.4,29.88,WSW,240,0.0,0.0,70,0.00,,SKC,0.00,VWS V14.01,2013-07-10 16:40:00,
2013-07-10 12:42:00,82.2,71.4,29.88,WSW,237,0.0,0.0,70,0.00,,SKC,0.00,VWS V14.01,2013-07-10 16:42:00,
2013-07-10 12:43:00,82.2,71.9,29.88,WSW,246,0.0,0.0,71,0.00,,SKC,0.00,VWS V14.01,2013-07-10 16:43:00,
2013-07-10 12:44:00,82.2,71.9,29.88,WSW,244,0.0,0.0,71,0.00,,SKC,0.00,VWS V14.01,2013-07-10 16:44:00,
2013-07-10 12:45:00,82.2,71.9,29.88,WSW,240,0.0,0.0,71,0.00,,SKC,0.00,VWS V14.01,2013-07-10 16:45:00,
2013-07-10 12:47:00,82.0,71.7,29.88,WSW,237,0.0,0.0,71,0.00,,SKC,0.00,VWS V14.01,2013-07-10 16:47:00,
2013-07-10 12:48:00,82.0,71.7,29.88,WSW,241,0.0,0.0,71,0.00,,SKC,0.00,VWS V14.01,2013-07-10 16:48:00,
2013-07-10 12:50:00,81.8,71.5,29.88,WSW,247,0.0,0.0,71,0.00,,SKC,0.00,VWS V14.01,2013-07-10 16:50:00,
2013-07-10 12:51:00,81.8,71.5,29.88,WSW,248,0.0,0.0,71,0.00,,SKC,0.00,VWS V14.01,2013-07-10 16:51:00,
2013-07-10 12:52:00,81.8,71.9,29.88,NW,318,2.0,3.0,72,0.00,,SKC,0.00,VWS V14.01,2013-07-10 16:52:00,
2013-07-10 12:54:00,81.8,71.9,29.88,NW,320,0.0,3.0,72,0.00,,SKC,0.00,VWS V14.01,2013-07-10 16:54:00,
2013-07-10 12:55:00,82.0,72.1,29.88,NW,316,0.0,3.0,72,0.00,,SKC,0.00,VWS V14.01,2013-07-10 16:55:00,
2013-07-10 12:56:00,82.2,72.7,29.88,NW,309,0.0,0.0,73,0.00,,SKC,0.00,VWS V14.01,2013-07-10 16:56:00,
2013-07-10 12:57:00,82.2,72.3,29.88,WNW,298,0.0,0.0,72,0.00,,SKC,0.00,VWS V14.01,2013-07-10 16:57:00,
2013-07-10 12:59:00,82.0,72.1,29.88,West,271,0.0,0.0,72,0.00,,SKC,0.00,VWS V14.01,2013-07-10 16:59:00,
2013-07-10 13:00:00,81.8,71.5,29.87,West,267,0.0,0.0,71,0.00,,SKC,0.00,VWS V14.01,2013-07-10 17:00:00,
2013-07-10 13:01:00,81.8,71.5,29.87,West,270,0.0,0.0,71,0.00,,SKC,0.00,VWS V14.01,2013-07-10 17:01:00,
2013-07-10 13:02:00,81.8,71.5,29.87,West,270,0.0,0.0,71,0.00,,SKC,0.00,VWS V14.01,2013-07-10 17:02:00,
2013-07-10 13:04:00,81.8,71.5,29.87,West,268,0.0,0.0,71,0.00,,SKC,0.00,VWS V14.01,2013-07-10 17:04:00,
2013-07-10 13:05:00,81.8,71.5,29.87,WSW,257,0.0,0.0,71,0.00,,SKC,0.00,VWS V14.01,2013-07-10 17:05:00,
2013-07-10 13:06:00,81.6,71.7,29.87,WSW,257,0.0,0.0,72,0.00,,SKC,0.00,VWS V14.01,2013-07-10 17:06:00,
2013-07-10 13:07:00,81.6,71.7,29.87,WSW,256,0.0,0.0,72,0.00,,SKC,0.00,VWS V14.01,2013-07-10 17:07:00,
2013-07-10 13:09:00,81.6,71.7,29.87,WSW,258,0.0,0.0,72,0.00,,SKC,0.00,VWS V14.01,2013-07-10 17:09:00,
2013-07-10 13:11:00,81.6,71.7,29.87,WSW,258,0.0,0.0,72,0.00,,SKC,0.00,VWS V14.01,2013-07-10 17:11:00,
2013-07-10 13:12:00,81.8,71.9,29.87,West,260,0.0,0.0,72,0.00,,SKC,0.00,VWS V14.01,2013-07-10 17:12:00,
2013-07-10 13:13:00,81.8,72.7,29.87,WSW,257,0.0,0.0,74,0.00,,SKC,0.00,VWS V14.01,2013-07-10 17:13:00,
2013-07-10 13:15:00,81.8,72.7,29.86,West,260,0.0,0.0,74,0.00,,SKC,0.00,VWS V14.01,2013-07-10 17:15:00,
2013-07-10 13:16:00,81.6,72.5,29.86,WSW,258,0.0,0.0,74,0.00,,SKC,0.00,VWS V14.01,2013-07-10 17:16:00,
2013-07-10 13:18:00,81.6,71.7,29.86,SSW,210,0.0,0.0,72,0.00,,SKC,0.00,VWS V14.01,2013-07-10 17:18:00,
2013-07-10 13:21:00,81.6,72.1,29.86,SW,234,0.0,0.0,73,0.00,,SKC,0.00,VWS V14.01,2013-07-10 17:21:00,
2013-07-10 13:22:00,81.6,72.1,29.86,SW,233,0.0,0.0,73,0.00,,SKC,0.00,VWS V14.01,2013-07-10 17:22:00,
2013-07-10 13:23:00,81.6,72.1,29.86,WSW,244,2.0,2.0,73,0.00,,SKC,0.00,VWS V14.01,2013-07-10 17:23:00,
2013-07-10 13:24:00,81.6,72.1,29.86,WSW,244,0.0,3.0,73,0.00,,SKC,0.00,VWS V14.01,2013-07-10 17:24:00,
2013-07-10 13:26:00,81.6,72.1,29.86,WSW,244,0.0,3.0,73,0.00,,SKC,0.00,VWS V14.01,2013-07-10 17:26:00,
2013-07-10 13:27:00,81.8,72.3,29.86,WSW,247,0.0,3.0,73,0.00,,SKC,0.00,VWS V14.01,2013-07-10 17:27:00,
2013-07-10 13:28:00,81.8,72.3,29.86,WSW,244,0.0,3.0,73,0.00,,SKC,0.00,VWS V14.01,2013-07-10 17:28:00,
2013-07-10 13:29:00,82.0,72.1,29.86,WSW,244,4.0,4.0,72,0.00,,SKC,0.00,VWS V14.01,2013-07-10 17:29:00,
2013-07-10 13:31:00,82.0,72.5,29.86,WSW,248,0.0,0.0,73,0.00,,SKC,0.00,VWS V14.01,2013-07-10 17:31:00,
2013-07-10 13:33:00,82.0,71.7,29.86,WSW,253,0.0,3.0,71,0.00,,SKC,0.00,VWS V14.01,2013-07-10 17:33:00,
2013-07-10 13:34:00,81.8,71.9,29.86,WSW,248,0.0,3.0,72,0.00,,SKC,0.00,VWS V14.01,2013-07-10 17:34:00,
2013-07-10 13:35:00,81.8,71.9,29.86,WSW,250,0.0,3.0,72,0.00,,SKC,0.00,VWS V14.01,2013-07-10 17:35:00,
2013-07-10 13:37:00,81.8,71.9,29.86,WSW,250,0.0,0.0,72,0.00,,SKC,0.00,VWS V14.01,2013-07-10 17:37:00,
2013-07-10 13:38:00,81.8,71.9,29.86,SW,236,0.0,0.0,72,0.00,,SKC,0.00,VWS V14.01,2013-07-10 17:38:00,
2013-07-10 13:40:00,81.8,71.9,29.86,SW,236,2.0,3.0,72,0.00,,SKC,0.00,VWS V14.01,2013-07-10 17:40:00,
2013-07-10 13:42:00,81.8,71.9,29.86,SW,232,6.0,6.0,72,0.00,,SKC,0.00,VWS V14.01,2013-07-10 17:42:00,
2013-07-10 13:43:00,81.8,71.5,29.86,WSW,241,0.0,6.0,71,0.00,,SKC,0.00,VWS V14.01,2013-07-10 17:43:00,
2013-07-10 13:44:00,81.8,71.5,29.86,WSW,240,0.0,6.0,71,0.00,,SKC,0.00,VWS V14.01,2013-07-10 17:44:00,
2013-07-10 13:45:00,81.8,71.5,29.85,WSW,251,3.0,6.0,71,0.00,,SKC,0.00,VWS V14.01,2013-07-10 17:45:00,
2013-07-10 13:47:00,81.8,71.9,29.85,WSW,247,0.0,0.0,72,0.00,,SKC,0.00,VWS V14.01,2013-07-10 17:47:00,
2013-07-10 13:49:00,81.8,71.9,29.85,WSW,246,0.0,3.0,72,0.00,,SKC,0.00,VWS V14.01,2013-07-10 17:49:00,
2013-07-10 13:50:00,81.6,71.3,29.85,WSW,248,0.0,3.0,71,0.00,,SKC,0.00,VWS V14.01,2013-07-10 17:50:00,
2013-07-10 13:51:00,81.6,71.3,29.85,WSW,251,0.0,0.0,71,0.00,,SKC,0.00,VWS V14.01,2013-07-10 17:51:00,
2013-07-10 13:53:00,81.8,71.5,29.85,WSW,246,0.0,0.0,71,0.00,,SKC,0.00,VWS V14.01,2013-07-10 17:53:00,
2013-07-10 13:54:00,81.8,72.3,29.85,WSW,256,2.0,2.0,73,0.00,,SKC,0.00,VWS V14.01,2013-07-10 17:54:00,
2013-07-10 13:56:00,81.6,72.1,29.85,SW,227,0.0,0.0,73,0.00,,SKC,0.00,VWS V14.01,2013-07-10 17:56:00,
2013-07-10 13:58:00,81.8,71.9,29.85,WSW,239,2.0,4.0,72,0.00,,SKC,0.00,VWS V14.01,2013-07-10 17:58:00,
2013-07-10 14:00:00,81.8,71.9,29.84,WSW,244,2.0,5.0,72,0.00,,SKC,0.00,VWS V14.01,2013-07-10 18:00:00,
2013-07-10 14:01:00,81.8,71.9,29.84,WSW,246,0.0,0.0,72,0.00,,SKC,0.00,VWS V14.01,2013-07-10 18:01:00,
2013-07-10 14:02:00,81.8,71.9,29.84,WSW,253,0.0,3.0,72,0.00,,SKC,0.00,VWS V14.01,2013-07-10 18:02:00,
2013-07-10 14:03:00,81.8,71.9,29.84,SSW,203,0.0,3.0,72,0.00,,SKC,0.00,VWS V14.01,2013-07-10 18:03:00,
2013-07-10 14:05:00,81.8,71.9,29.84,SW,224,0.0,3.0,72,0.00,,SKC,0.00,VWS V14.01,2013-07-10 18:05:00,
2013-07-10 14:06:00,81.8,71.9,29.84,SW,223,0.0,0.0,72,0.00,,SKC,0.00,VWS V14.01,2013-07-10 18:06:00,
2013-07-10 14:08:00,82.0,72.1,29.84,SW,229,0.0,0.0,72,0.00,,SKC,0.00,VWS V14.01,2013-07-10 18:08:00,
2013-07-10 14:09:00,82.0,72.1,29.84,WSW,243,0.0,0.0,72,0.00,,SKC,0.00,VWS V14.01,2013-07-10 18:09:00,
2013-07-10 14:11:00,82.2,71.4,29.84,WSW,241,0.0,0.0,70,0.00,,SKC,0.00,VWS V14.01,2013-07-10 18:11:00,
2013-07-10 14:12:00,82.2,71.4,29.84,WSW,248,1.0,3.0,70,0.00,,SKC,0.00,VWS V14.01,2013-07-10 18:12:00,
2013-07-10 14:13:00,82.0,71.3,29.84,SSW,200,3.0,3.0,70,0.00,,SKC,0.00,VWS V14.01,2013-07-10 18:13:00,
2013-07-10 14:14:00,82.0,71.3,29.84,SW,224,6.0,6.0,70,0.00,,SKC,0.00,VWS V14.01,2013-07-10 18:14:00,
2013-07-10 14:17:00,82.0,71.3,29.84,SW,233,0.0,1.0,70,0.00,,SKC,0.00,VWS V14.01,2013-07-10 18:17:00,
2013-07-10 14:18:00,82.0,71.3,29.84,WSW,246,5.0,5.0,70,0.00,,SKC,0.00,VWS V14.01,2013-07-10 18:18:00,
2013-07-10 14:19:00,82.0,71.3,29.84,WSW,246,5.0,5.0,70,0.00,,SKC,0.00,VWS V14.01,2013-07-10 18:19:00,
2013-07-10 14:22:00,81.6,70.9,29.84,WSW,256,3.0,6.0,70,0.00,,SKC,0.00,VWS V14.01,2013-07-10 18:22:00,
2013-07-10 14:24:00,81.4,71.1,29.84,WSW,243,0.0,6.0,71,0.00,,SKC,0.00,VWS V14.01,2013-07-10 18:24:00,
2013-07-10 14:27:00,81.2,70.9,29.84,WSW,253,3.0,6.0,71,0.00,,SKC,0.00,VWS V14.01,2013-07-10 18:27:00,
2013-07-10 14:28:00,81.2,70.9,29.84,WSW,253,3.0,6.0,71,0.00,,SKC,0.00,VWS V14.01,2013-07-10 18:28:00,
2013-07-10 14:29:00,81.2,70.9,29.84,WSW,257,0.0,6.0,71,0.00,,SKC,0.00,VWS V14.01,2013-07-10 18:29:00,
2013-07-10 14:32:00,81.2,70.9,29.84,WSW,257,0.0,0.0,71,0.00,,SKC,0.00,VWS V14.01,2013-07-10 18:32:00,
2013-07-10 14:33:00,81.2,70.9,29.84,WSW,257,0.0,0.0,71,0.00,,SKC,0.00,VWS V14.01,2013-07-10 18:33:00,
2013-07-10 14:34:00,81.2,70.9,29.84,WSW,257,0.0,0.0,71,0.00,,SKC,0.00,VWS V14.01,2013-07-10 18:34:00,
2013-07-10 14:37:00,81.4,71.1,29.84,West,260,0.0,0.0,71,0.00,,SKC,0.00,VWS V14.01,2013-07-10 18:37:00,
2013-07-10 14:38:00,81.6,71.3,29.84,WSW,257,0.0,0.0,71,0.00,,SKC,0.00,VWS V14.01,2013-07-10 18:38:00,
2013-07-10 14:39:00,81.6,71.3,29.84,WSW,258,0.0,0.0,71,0.00,,SKC,0.00,VWS V14.01,2013-07-10 18:39:00,
2013-07-10 14:43:00,81.8,71.5,29.84,SW,230,1.0,1.0,71,0.00,,SKC,0.00,VWS V14.01,2013-07-10 18:43:00,
2013-07-10 14:44:00,81.6,71.3,29.84,WSW,257,0.0,3.0,71,0.00,,SKC,0.00,VWS V14.01,2013-07-10 18:44:00,
2013-07-10 14:45:00,81.6,71.3,29.83,WSW,257,3.0,5.0,71,0.00,,SKC,0.00,VWS V14.01,2013-07-10 18:45:00,
2013-07-10 14:48:00,81.6,71.3,29.83,WNW,296,0.0,5.0,71,0.00,,SKC,0.00,VWS V14.01,2013-07-10 18:48:00,
2013-07-10 14:49:00,81.6,71.3,29.83,WNW,298,0.0,5.0,71,0.00,,SKC,0.00,VWS V14.01,2013-07-10 18:49:00,
2013-07-10 14:50:00,81.8,71.9,29.83,West,263,0.0,5.0,72,0.00,,SKC,0.00,VWS V14.01,2013-07-10 18:50:00,
2013-07-10 14:53:00,82.2,72.3,29.83,West,261,2.0,3.0,72,0.00,,SKC,0.00,VWS V14.01,2013-07-10 18:53:00,
2013-07-10 14:54:00,82.2,71.9,29.83,WSW,254,0.0,5.0,71,0.00,,SKC,0.00,VWS V14.01,2013-07-10 18:54:00,
2013-07-10 14:55:00,82.2,71.9,29.83,SW,223,3.0,5.0,71,0.00,,SKC,0.00,VWS V14.01,2013-07-10 18:55:00,
2013-07-10 14:58:00,82.2,71.4,29.83,WSW,257,0.0,4.0,70,0.00,,SKC,0.00,VWS V14.01,2013-07-10 18:58:00,
2013-07-10 15:00:00,82.0,71.3,29.83,WSW,254,2.0,4.0,70,0.00,,SKC,0.00,VWS V14.01,2013-07-10 19:00:00,
2013-07-10 15:01:00,82.0,71.3,29.83,WSW,254,0.0,1.0,70,0.00,,SKC,0.00,VWS V14.01,2013-07-10 19:01:00,
2013-07-10 15:03:00,82.2,71.4,29.83,WSW,256,2.0,3.0,70,0.00,,SKC,0.00,VWS V14.01,2013-07-10 19:03:00,
2013-07-10 15:05:00,82.2,71.9,29.83,WSW,257,0.0,3.0,71,0.00,,SKC,0.00,VWS V14.01,2013-07-10 19:05:00,
2013-07-10 15:06:00,82.2,71.9,29.83,WSW,257,0.0,0.0,71,0.00,,SKC,0.00,VWS V14.01,2013-07-10 19:06:00,
2013-07-10 15:07:00,82.2,71.9,29.83,WSW,256,0.0,4.0,71,0.00,,SKC,0.00,VWS V14.01,2013-07-10 19:07:00,
2013-07-10 15:08:00,82.2,71.9,29.83,SSW,203,0.0,4.0,71,0.00,,SKC,0.00,VWS V14.01,2013-07-10 19:08:00,
2013-07-10 15:10:00,82.2,71.9,29.83,West,271,2.0,6.0,71,0.00,,SKC,0.00,VWS V14.01,2013-07-10 19:10:00,
2013-07-10 15:11:00,82.2,71.9,29.83,West,271,2.0,3.0,71,0.00,,SKC,0.00,VWS V14.01,2013-07-10 19:11:00,
2013-07-10 15:12:00,82.2,71.9,29.83,West,272,0.0,3.0,71,0.00,,SKC,0.00,VWS V14.01,2013-07-10 19:12:00,
2013-07-10 15:15:00,82.0,72.1,29.82,WSW,256,2.0,3.0,72,0.00,,SKC,0.00,VWS V14.01,2013-07-10 19:15:00,
2013-07-10 15:16:00,82.0,72.1,29.82,WSW,239,0.0,2.0,72,0.00,,SKC,0.00,VWS V14.01,2013-07-10 19:16:00,
2013-07-10 15:17:00,81.8,71.9,29.82,West,264,3.0,5.0,72,0.00,,SKC,0.00,VWS V14.01,2013-07-10 19:17:00,
2013-07-10 15:21:00,81.8,71.9,29.82,West,260,0.0,5.0,72,0.00,,SKC,0.00,VWS V14.01,2013-07-10 19:21:00,
2013-07-10 15:22:00,81.8,71.9,29.82,West,265,0.0,2.0,72,0.00,,SKC,0.00,VWS V14.01,2013-07-10 19:22:00,
2013-07-10 15:23:00,81.8,71.9,29.82,West,265,0.0,2.0,72,0.00,,SKC,0.00,VWS V14.01,2013-07-10 19:23:00,
2013-07-10 15:26:00,81.8,72.3,29.82,West,260,0.0,0.0,73,0.00,,SKC,0.00,VWS V14.01,2013-07-10 19:26:00,
2013-07-10 15:28:00,81.6,72.1,29.82,West,260,3.0,3.0,73,0.00,,SKC,0.00,VWS V14.01,2013-07-10 19:28:00,
2013-07-10 15:31:00,81.4,71.9,29.82,WSW,253,2.0,2.0,73,0.00,,SKC,0.00,VWS V14.01,2013-07-10 19:31:00,
2013-07-10 15:33:00,81.6,72.5,29.82,WSW,257,0.0,2.0,74,0.00,,SKC,0.00,VWS V14.01,2013-07-10 19:33:00,
2013-07-10 15:34:00,81.6,72.5,29.82,West,260,0.0,2.0,74,0.00,,SKC,0.00,VWS V14.01,2013-07-10 19:34:00,
2013-07-10 15:36:00,81.6,72.5,29.82,WSW,258,1.0,1.0,74,0.00,,SKC,0.00,VWS V14.01,2013-07-10 19:36:00,
2013-07-10 15:37:00,81.6,72.5,29.82,WSW,243,0.0,2.0,74,0.00,,SKC,0.00,VWS V14.01,2013-07-10 19:37:00,
2013-07-10 15:38:00,81.6,72.5,29.82,WSW,248,0.0,2.0,74,0.00,,SKC,0.00,VWS V14.01,2013-07-10 19:38:00,
2013-07-10 15:39:00,81.4,72.3,29.82,WSW,254,0.0,2.0,74,0.00,,SKC,0.00,VWS V14.01,2013-07-10 19:39:00,
2013-07-10 15:41:00,81.4,72.3,29.82,WSW,257,0.0,2.0,74,0.00,,SKC,0.00,VWS V14.01,2013-07-10 19:41:00,
2013-07-10 15:42:00,81.2,72.1,29.82,WSW,248,2.0,2.0,74,0.00,,SKC,0.00,VWS V14.01,2013-07-10 19:42:00,
2013-07-10 15:43:00,81.2,72.1,29.82,West,261,0.0,2.0,74,0.00,,SKC,0.00,VWS V14.01,2013-07-10 19:43:00,
2013-07-10 15:44:00,81.2,72.1,29.82,West,260,0.0,2.0,74,0.00,,SKC,0.00,VWS V14.01,2013-07-10 19:44:00,
2013-07-10 15:46:00,81.1,72.0,29.81,West,260,0.0,0.0,74,0.00,,SKC,0.00,VWS V14.01,2013-07-10 19:46:00,
2013-07-10 15:47:00,81.2,72.5,29.81,WSW,246,0.0,2.0,75,0.00,,SKC,0.00,VWS V14.01,2013-07-10 19:47:00,
2013-07-10 15:48:00,81.2,72.5,29.81,WSW,246,0.0,2.0,75,0.00,,SKC,0.00,VWS V14.01,2013-07-10 19:48:00,
2013-07-10 15:49:00,81.2,72.5,29.81,WSW,247,0.0,2.0,75,0.00,,SKC,0.00,VWS V14.01,2013-07-10 19:49:00,
2013-07-10 15:52:00,81.2,72.5,29.81,WSW,246,0.0,0.0,75,0.00,,SKC,0.00,VWS V14.01,2013-07-10 19:52:00,
2013-07-10 15:53:00,81.2,72.5,29.81,WSW,246,0.0,0.0,75,0.00,,SKC,0.00,VWS V14.01,2013-07-10 19:53:00,
2013-07-10 15:54:00,81.2,72.9,29.81,WSW,244,0.0,0.0,76,0.00,,SKC,0.00,VWS V14.01,2013-07-10 19:54:00,
2013-07-10 15:55:00,81.2,72.9,29.81,WSW,248,0.0,0.0,76,0.00,,SKC,0.00,VWS V14.01,2013-07-10 19:55:00,
2013-07-10 15:57:00,81.2,72.5,29.81,WSW,258,0.0,1.0,75,0.00,,SKC,0.00,VWS V14.01,2013-07-10 19:57:00,
2013-07-10 15:58:00,81.2,72.5,29.81,WSW,257,0.0,1.0,75,0.00,,SKC,0.00,VWS V14.01,2013-07-10 19:58:00,
2013-07-10 15:59:00,81.1,72.4,29.81,West,265,0.0,2.0,75,0.00,,SKC,0.00,VWS V14.01,2013-07-10 19:59:00,
2013-07-10 16:00:00,81.1,72.8,29.81,West,263,0.0,2.0,76,0.00,,SKC,0.00,VWS V14.01,2013-07-10 20:00:00,
2013-07-10 16:03:00,80.5,72.2,29.81,West,263,0.0,2.0,76,0.00,,SKC,0.00,VWS V14.01,2013-07-10 20:03:00,
2013-07-10 16:04:00,80.5,72.6,29.81,West,263,0.0,2.0,77,0.00,,SKC,0.00,VWS V14.01,2013-07-10 20:04:00,
2013-07-10 16:05:00,80.5,72.6,29.81,WSW,257,0.0,2.0,77,0.00,,SKC,0.00,VWS V14.01,2013-07-10 20:05:00,
2013-07-10 16:08:00,80.1,72.6,29.81,West,263,1.0,4.0,78,0.00,,SKC,0.00,VWS V14.01,2013-07-10 20:08:00,
2013-07-10 16:09:00,79.9,72.4,29.81,WNW,285,0.0,4.0,78,0.00,,SKC,0.00,VWS V14.01,2013-07-10 20:09:00,
2013-07-10 16:10:00,79.9,72.1,29.81,West,270,0.0,4.0,77,0.00,,SKC,0.00,VWS V14.01,2013-07-10 20:10:00,
2013-07-10 16:13:00,79.6,72.1,29.81,West,265,0.0,5.0,78,0.00,,SKC,0.00,VWS V14.01,2013-07-10 20:13:00,
2013-07-10 16:14:00,79.4,71.9,29.81,West,264,0.0,5.0,78,0.00,,SKC,0.00,VWS V14.01,2013-07-10 20:14:00,
2013-07-10 16:15:00,79.4,72.3,29.81,West,267,8.0,8.0,79,0.00,,SKC,0.00,VWS V14.01,2013-07-10 20:15:00,
2013-07-10 16:18:00,79.2,72.1,29.81,West,274,0.0,3.0,79,0.00,,SKC,0.00,VWS V14.01,2013-07-10 20:18:00,
2013-07-10 16:19:00,79.2,72.1,29.81,West,274,0.0,3.0,79,0.00,,SKC,0.00,VWS V14.01,2013-07-10 20:19:00,
2013-07-10 16:20:00,79.2,72.1,29.81,West,271,1.0,3.0,79,0.00,,SKC,0.00,VWS V14.01,2013-07-10 20:20:00,
2013-07-10 16:24:00,79.2,72.5,29.81,West,264,0.0,1.0,80,0.00,,SKC,0.00,VWS V14.01,2013-07-10 20:24:00,
2013-07-10 16:25:00,79.2,72.5,29.81,West,264,0.0,1.0,80,0.00,,SKC,0.00,VWS V14.01,2013-07-10 20:25:00,
2013-07-10 16:29:00,79.8,72.7,29.81,West,270,0.0,0.0,79,0.00,,SKC,0.00,VWS V14.01,2013-07-10 20:29:00,
2013-07-10 16:30:00,79.8,72.7,29.80,West,264,1.0,3.0,79,0.00,,SKC,0.00,VWS V14.01,2013-07-10 20:30:00,
2013-07-10 16:34:00,79.8,72.3,29.80,West,260,0.0,6.0,78,0.00,,SKC,0.00,VWS V14.01,2013-07-10 20:34:00,
2013-07-10 16:35:00,79.8,72.3,29.80,West,271,0.0,2.0,78,0.00,,SKC,0.00,VWS V14.01,2013-07-10 20:35:00,
2013-07-10 16:36:00,79.8,72.3,29.80,West,271,0.0,2.0,78,0.00,,SKC,0.00,VWS V14.01,2013-07-10 20:36:00,
2013-07-10 16:39:00,79.6,72.1,29.80,West,268,0.0,3.0,78,0.00,,SKC,0.00,VWS V14.01,2013-07-10 20:39:00,
2013-07-10 16:40:00,79.6,72.1,29.80,West,268,0.0,3.0,78,0.00,,SKC,0.00,VWS V14.01,2013-07-10 20:40:00,
2013-07-10 16:41:00,79.4,71.9,29.80,West,268,0.0,0.0,78,0.00,,SKC,0.00,VWS V14.01,2013-07-10 20:41:00,
2013-07-10 16:45:00,79.2,72.1,29.80,North,357,0.0,1.0,79,0.00,,SKC,0.00,VWS V14.01,2013-07-10 20:45:00,
2013-07-10 16:46:00,79.2,72.1,29.80,North,354,0.0,0.0,79,0.00,,SKC,0.00,VWS V14.01,2013-07-10 20:46:00,
2013-07-10 16:47:00,79.2,72.1,29.80,North,354,0.0,0.0,79,0.00,,SKC,0.00,VWS V14.01,2013-07-10 20:47:00,
2013-07-10 16:50:00,78.8,72.1,29.80,West,274,0.0,4.0,80,0.00,,SKC,0.00,VWS V14.01,2013-07-10 20:50:00,
2013-07-10 16:51:00,78.6,71.9,29.80,West,274,0.0,0.0,80,0.00,,SKC,0.00,VWS V14.01,2013-07-10 20:51:00,
2013-07-10 16:52:00,78.6,71.9,29.80,West,275,0.0,0.0,80,0.00,,SKC,0.00,VWS V14.01,2013-07-10 20:52:00,
2013-07-10 16:53:00,78.5,71.8,29.80,West,274,0.0,2.0,80,0.00,,SKC,0.00,VWS V14.01,2013-07-10 20:53:00,
2013-07-10 16:55:00,78.3,72.0,29.80,West,272,0.0,2.0,81,0.00,,SKC,0.00,VWS V14.01,2013-07-10 20:55:00,
2013-07-10 16:56:00,78.3,72.0,29.80,West,274,0.0,1.0,81,0.00,,SKC,0.00,VWS V14.01,2013-07-10 20:56:00,
2013-07-10 16:57:00,78.3,72.0,29.80,West,271,0.0,1.0,81,0.00,,SKC,0.00,VWS V14.01,2013-07-10 20:57:00,
2013-07-10 16:58:00,78.1,71.8,29.80,West,274,0.0,1.0,81,0.00,,SKC,0.00,VWS V14.01,2013-07-10 20:58:00,
2013-07-10 17:00:00,77.9,71.6,29.79,WSW,258,0.0,1.0,81,0.00,,SKC,0.00,VWS V14.01,2013-07-10 21:00:00,
2013-07-10 17:01:00,77.9,72.0,29.79,WSW,257,0.0,0.0,82,0.00,,SKC,0.00,VWS V14.01,2013-07-10 21:01:00,
2013-07-10 17:02:00,77.9,72.0,29.79,WSW,257,2.0,3.0,82,0.00,,SKC,0.00,VWS V14.01,2013-07-10 21:02:00,
2013-07-10 17:03:00,77.7,71.8,29.79,WSW,258,0.0,3.0,82,0.00,,SKC,0.00,VWS V14.01,2013-07-10 21:03:00,
2013-07-10 17:04:00,77.7,71.8,29.79,West,260,0.0,3.0,82,0.00,,SKC,0.00,VWS V14.01,2013-07-10 21:04:00,
2013-07-10 17:06:00,77.7,71.8,29.79,West,280,0.0,0.0,82,0.00,,SKC,0.00,VWS V14.01,2013-07-10 21:06:00,
2013-07-10 17:08:00,77.6,71.7,29.79,West,277,0.0,5.0,82,0.00,,SKC,0.00,VWS V14.01,2013-07-10 21:08:00,
2013-07-10 17:10:00,77.6,71.7,29.79,West,274,0.0,5.0,82,0.00,,SKC,0.00,VWS V14.01,2013-07-10 21:10:00,
2013-07-10 17:11:00,77.6,71.7,29.79,West,272,1.0,1.0,82,0.00,,SKC,0.00,VWS V14.01,2013-07-10 21:11:00,
2013-07-10 17:13:00,77.4,71.5,29.79,West,277,3.0,3.0,82,0.00,,SKC,0.00,VWS V14.01,2013-07-10 21:13:00,
2013-07-10 17:14:00,77.4,71.5,29.79,West,275,3.0,3.0,82,0.00,,SKC,0.00,VWS V14.01,2013-07-10 21:14:00,
2013-07-10 17:15:00,77.4,71.5,29.78,West,272,0.0,3.0,82,0.00,,SKC,0.00,VWS V14.01,2013-07-10 21:15:00,
2013-07-10 17:16:00,77.4,71.5,29.78,West,268,0.0,0.0,82,0.00,,SKC,0.00,VWS V14.01,2013-07-10 21:16:00,
2013-07-10 17:17:00,77.4,71.5,29.78,West,270,0.0,0.0,82,0.00,,SKC,0.00,VWS V14.01,2013-07-10 21:17:00,
2013-07-10 17:19:00,77.4,71.8,29.78,West,271,0.0,0.0,83,0.00,,SKC,0.00,VWS V14.01,2013-07-10 21:19:00,
2013-07-10 17:20:00,77.4,71.8,29.78,West,267,0.0,0.0,83,0.00,,SKC,0.00,VWS V14.01,2013-07-10 21:20:00,
2013-07-10 17:22:00,77.4,71.8,29.78,West,274,0.0,0.0,83,0.00,,SKC,0.00,VWS V14.01,2013-07-10 21:22:00,
2013-07-10 17:24:00,77.4,71.8,29.78,West,268,0.0,0.0,83,0.00,,SKC,0.00,VWS V14.01,2013-07-10 21:24:00,
2013-07-10 17:25:00,77.4,71.8,29.78,West,271,0.0,0.0,83,0.00,,SKC,0.00,VWS V14.01,2013-07-10 21:25:00,
2013-07-10 17:27:00,77.4,71.8,29.78,West,263,0.0,0.0,83,0.00,,SKC,0.00,VWS V14.01,2013-07-10 21:27:00,
2013-07-10 17:28:00,77.4,71.8,29.78,West,268,0.0,0.0,83,0.00,,SKC,0.00,VWS V14.01,2013-07-10 21:28:00,
2013-07-10 17:29:00,77.4,71.8,29.78,West,267,0.0,2.0,83,0.00,,SKC,0.00,VWS V14.01,2013-07-10 21:29:00,
2013-07-10 17:31:00,77.4,71.8,29.78,West,265,0.0,0.0,83,0.00,,SKC,0.00,VWS V14.01,2013-07-10 21:31:00,
2013-07-10 17:32:00,77.4,71.8,29.78,West,267,0.0,0.0,83,0.00,,SKC,0.00,VWS V14.01,2013-07-10 21:32:00,
2013-07-10 17:33:00,77.4,71.8,29.78,West,267,0.0,0.0,83,0.00,,SKC,0.00,VWS V14.01,2013-07-10 21:33:00,
2013-07-10 17:34:00,77.4,71.8,29.78,West,265,0.0,0.0,83,0.00,,SKC,0.00,VWS V14.01,2013-07-10 21:34:00,
2013-07-10 17:37:00,77.4,71.8,29.78,WNW,282,0.0,2.0,83,0.00,,SKC,0.00,VWS V14.01,2013-07-10 21:37:00,
2013-07-10 17:38:00,77.4,71.8,29.78,WNW,284,0.0,2.0,83,0.00,,SKC,0.00,VWS V14.01,2013-07-10 21:38:00,
2013-07-10 17:39:00,77.2,71.6,29.78,WNW,285,0.0,2.0,83,0.00,,SKC,0.00,VWS V14.01,2013-07-10 21:39:00,
2013-07-10 17:40:00,77.2,71.6,29.78,WNW,285,0.0,2.0,83,0.00,,SKC,0.00,VWS V14.01,2013-07-10 21:40:00,
2013-07-10 17:42:00,77.2,71.6,29.78,West,272,0.0,0.0,83,0.00,,SKC,0.00,VWS V14.01,2013-07-10 21:42:00,
2013-07-10 17:43:00,77.2,71.6,29.78,West,271,0.0,0.0,83,0.00,,SKC,0.00,VWS V14.01,2013-07-10 21:43:00,
2013-07-10 17:44:00,77.2,72.0,29.78,West,271,0.0,0.0,84,0.00,,SKC,0.00,VWS V14.01,2013-07-10 21:44:00,
2013-07-10 17:45:00,77.2,72.0,29.78,West,272,0.0,0.0,84,0.00,,SKC,0.00,VWS V14.01,2013-07-10 21:45:00,
2013-07-10 17:47:00,77.0,71.8,29.78,West,270,1.0,3.0,84,0.00,,SKC,0.00,VWS V14.01,2013-07-10 21:47:00,
2013-07-10 17:48:00,77.0,71.8,29.78,West,270,0.0,3.0,84,0.00,,SKC,0.00,VWS V14.01,2013-07-10 21:48:00,
2013-07-10 17:49:00,77.0,71.8,29.78,West,268,0.0,3.0,84,0.00,,SKC,0.00,VWS V14.01,2013-07-10 21:49:00,
2013-07-10 17:50:00,77.0,71.8,29.78,West,271,0.0,3.0,84,0.00,,SKC,0.00,VWS V14.01,2013-07-10 21:50:00,
2013-07-10 17:51:00,77.0,71.8,29.78,West,272,0.0,0.0,84,0.00,,SKC,0.00,VWS V14.01,2013-07-10 21:51:00,
2013-07-10 17:53:00,77.0,71.8,29.78,West,268,0.0,0.0,84,0.00,,SKC,0.00,VWS V14.01,2013-07-10 21:53:00,
2013-07-10 17:54:00,77.0,71.8,29.78,West,270,0.0,0.0,84,0.00,,SKC,0.00,VWS V14.01,2013-07-10 21:54:00,
2013-07-10 17:55:00,77.0,71.8,29.78,West,272,0.0,0.0,84,0.00,,SKC,0.00,VWS V14.01,2013-07-10 21:55:00,
2013-07-10 17:56:00,77.0,71.8,29.78,West,268,0.0,0.0,84,0.00,,SKC,0.00,VWS V14.01,2013-07-10 21:56:00,
2013-07-10 17:58:00,76.8,71.6,29.78,West,265,0.0,2.0,84,0.00,,SKC,0.00,VWS V14.01,2013-07-10 21:58:00,
2013-07-10 17:59:00,76.8,71.6,29.78,West,267,0.0,2.0,84,0.00,,SKC,0.00,VWS V14.01,2013-07-10 21:59:00,
2013-07-10 18:00:00,76.8,71.6,29.77,West,272,0.0,2.0,84,0.00,,SKC,0.00,VWS V14.01,2013-07-10 22:00:00,
2013-07-10 18:01:00,76.8,71.6,29.77,West,268,0.0,0.0,84,0.00,,SKC,0.00,VWS V14.01,2013-07-10 22:01:00,
2013-07-10 18:04:00,76.8,71.6,29.77,West,263,0.0,0.0,84,0.00,,SKC,0.00,VWS V14.01,2013-07-10 22:04:00,
2013-07-10 18:05:00,76.8,71.6,29.77,West,265,0.0,0.0,84,0.00,,SKC,0.00,VWS V14.01,2013-07-10 22:05:00,
2013-07-10 18:06:00,76.8,71.6,29.77,West,265,0.0,0.0,84,0.00,,SKC,0.00,VWS V14.01,2013-07-10 22:06:00,
2013-07-10 18:09:00,76.8,71.9,29.77,West,265,0.0,0.0,85,0.00,,SKC,0.00,VWS V14.01,2013-07-10 22:09:00,
2013-07-10 18:10:00,76.8,71.9,29.77,West,264,0.0,0.0,85,0.00,,SKC,0.00,VWS V14.01,2013-07-10 22:10:00,
2013-07-10 18:11:00,76.8,71.9,29.77,West,263,0.0,0.0,85,0.00,,SKC,0.00,VWS V14.01,2013-07-10 22:11:00,
2013-07-10 18:12:00,76.8,71.9,29.77,West,264,0.0,0.0,85,0.00,,SKC,0.00,VWS V14.01,2013-07-10 22:12:00,
2013-07-10 18:14:00,76.8,71.9,29.77,West,270,0.0,0.0,85,0.00,,SKC,0.00,VWS V14.01,2013-07-10 22:14:00,
2013-07-10 18:15:00,76.8,71.9,29.77,West,265,0.0,0.0,85,0.00,,SKC,0.00,VWS V14.01,2013-07-10 22:15:00,
2013-07-10 18:16:00,76.8,71.9,29.77,West,267,0.0,0.0,85,0.00,,SKC,0.00,VWS V14.01,2013-07-10 22:16:00,
2013-07-10 18:17:00,76.8,71.9,29.77,West,263,0.0,0.0,85,0.00,,SKC,0.00,VWS V14.01,2013-07-10 22:17:00,
2013-07-10 18:19:00,76.8,71.9,29.77,West,265,0.0,0.0,85,0.00,,SKC,0.00,VWS V14.01,2013-07-10 22:19:00,
2013-07-10 18:20:00,76.8,71.9,29.77,West,265,0.0,0.0,85,0.00,,SKC,0.00,VWS V14.01,2013-07-10 22:20:00,
2013-07-10 18:21:00,76.8,71.9,29.77,West,264,0.0,0.0,85,0.00,,SKC,0.00,VWS V14.01,2013-07-10 22:21:00,
2013-07-10 18:22:00,76.8,71.9,29.77,West,264,0.0,0.0,85,0.00,,SKC,0.00,VWS V14.01,2013-07-10 22:22:00,
2013-07-10 18:24:00,76.8,71.9,29.77,West,264,0.0,0.0,85,0.00,,SKC,0.00,VWS V14.01,2013-07-10 22:24:00,
2013-07-10 18:25:00,76.8,71.9,29.77,West,265,0.0,0.0,85,0.00,,SKC,0.00,VWS V14.01,2013-07-10 22:25:00,
2013-07-10 18:27:00,76.8,71.9,29.77,West,268,0.0,0.0,85,0.00,,SKC,0.00,VWS V14.01,2013-07-10 22:27:00,
2013-07-10 18:29:00,76.8,71.9,29.77,West,270,0.0,0.0,85,0.00,,SKC,0.00,VWS V14.01,2013-07-10 22:29:00,
2013-07-10 18:30:00,76.8,71.9,29.76,West,267,0.0,0.0,85,0.00,,SKC,0.00,VWS V14.01,2013-07-10 22:30:00,
2013-07-10 18:32:00,76.8,71.9,29.76,West,268,0.0,0.0,85,0.00,,SKC,0.00,VWS V14.01,2013-07-10 22:32:00,
2013-07-10 18:33:00,76.8,71.9,29.76,WSW,258,0.0,0.0,85,0.00,,SKC,0.00,VWS V14.01,2013-07-10 22:33:00,
2013-07-10 18:34:00,76.8,71.9,29.76,West,263,0.0,0.0,85,0.00,,SKC,0.00,VWS V14.01,2013-07-10 22:34:00,
2013-07-10 18:35:00,76.8,71.9,29.76,West,264,0.0,0.0,85,0.00,,SKC,0.00,VWS V14.01,2013-07-10 22:35:00,
2013-07-10 18:37:00,76.8,71.9,29.76,West,264,0.0,0.0,85,0.00,,SKC,0.00,VWS V14.01,2013-07-10 22:37:00,
2013-07-10 18:38:00,76.8,71.9,29.76,West,260,1.0,1.0,85,0.00,,SKC,0.00,VWS V14.01,2013-07-10 22:38:00,
2013-07-10 18:39:00,76.8,71.9,29.76,West,264,0.0,1.0,85,0.00,,SKC,0.00,VWS V14.01,2013-07-10 22:39:00,
2013-07-10 18:40:00,76.8,71.9,29.76,West,260,0.0,1.0,85,0.00,,SKC,0.00,VWS V14.01,2013-07-10 22:40:00,
2013-07-10 18:41:00,76.8,71.9,29.76,West,268,0.0,0.0,85,0.00,,SKC,0.00,VWS V14.01,2013-07-10 22:41:00,
2013-07-10 18:42:00,76.8,71.9,29.76,West,268,0.0,2.0,85,0.00,,SKC,0.00,VWS V14.01,2013-07-10 22:42:00,
2013-07-10 18:44:00,76.8,71.9,29.76,West,268,0.0,2.0,85,0.00,,SKC,0.00,VWS V14.01,2013-07-10 22:44:00,
2013-07-10 18:45:00,76.8,71.9,29.76,West,271,0.0,2.0,85,0.00,,SKC,0.00,VWS V14.01,2013-07-10 22:45:00,
2013-07-10 18:46:00,76.8,71.9,29.76,West,267,0.0,0.0,85,0.00,,SKC,0.00,VWS V14.01,2013-07-10 22:46:00,
2013-07-10 18:49:00,76.7,71.9,29.76,West,268,0.0,0.0,85,0.00,,SKC,0.00,VWS V14.01,2013-07-10 22:49:00,
2013-07-10 18:50:00,76.7,71.9,29.76,West,265,0.0,0.0,85,0.00,,SKC,0.00,VWS V14.01,2013-07-10 22:50:00,
2013-07-10 18:51:00,76.8,71.9,29.76,West,271,0.0,0.0,85,0.00,,SKC,0.00,VWS V14.01,2013-07-10 22:51:00,
2013-07-10 18:52:00,76.8,71.9,29.76,West,271,0.0,0.0,85,0.00,,SKC,0.00,VWS V14.01,2013-07-10 22:52:00,
2013-07-10 18:54:00,76.7,71.9,29.76,West,274,2.0,2.0,85,0.00,,SKC,0.00,VWS V14.01,2013-07-10 22:54:00,
2013-07-10 18:55:00,76.7,71.9,29.76,West,264,0.0,2.0,85,0.00,,SKC,0.00,VWS V14.01,2013-07-10 22:55:00,
2013-07-10 18:56:00,76.7,71.9,29.76,West,270,2.0,2.0,85,0.00,,SKC,0.00,VWS V14.01,2013-07-10 22:56:00,
2013-07-10 18:57:00,76.7,71.9,29.76,West,271,0.0,2.0,85,0.00,,SKC,0.00,VWS V14.01,2013-07-10 22:57:00,
2013-07-10 19:00:00,76.7,71.9,29.77,West,265,0.0,2.0,85,0.00,,SKC,0.00,VWS V14.01,2013-07-10 23:00:00,
2013-07-10 19:01:00,76.7,71.9,29.77,West,263,0.0,0.0,85,0.00,,SKC,0.00,VWS V14.01,2013-07-10 23:01:00,
2013-07-10 19:02:00,76.7,71.9,29.77,West,264,0.0,0.0,85,0.00,,SKC,0.00,VWS V14.01,2013-07-10 23:02:00,
2013-07-10 19:05:00,76.7,71.9,29.77,West,268,0.0,0.0,85,0.00,,SKC,0.00,VWS V14.01,2013-07-10 23:05:00,
2013-07-10 19:07:00,76.7,71.9,29.77,West,263,0.0,0.0,85,0.00,,SKC,0.00,VWS V14.01,2013-07-10 23:07:00,
2013-07-10 19:10:00,76.8,71.9,29.77,West,265,0.0,1.0,85,0.00,,SKC,0.00,VWS V14.01,2013-07-10 23:10:00,
2013-07-10 19:11:00,76.8,71.9,29.77,West,265,1.0,3.0,85,0.00,,SKC,0.00,VWS V14.01,2013-07-10 23:11:00,
2013-07-10 19:12:00,76.8,71.9,29.77,West,268,0.0,3.0,85,0.00,,SKC,0.00,VWS V14.01,2013-07-10 23:12:00,
2013-07-10 19:13:00,76.8,71.9,29.77,West,263,0.0,3.0,85,0.00,,SKC,0.00,VWS V14.01,2013-07-10 23:13:00,
2013-07-10 19:16:00,76.8,71.9,29.76,West,267,0.0,0.0,85,0.00,,SKC,0.00,VWS V14.01,2013-07-10 23:16:00,
2013-07-10 19:17:00,76.8,71.9,29.76,West,264,0.0,0.0,85,0.00,,SKC,0.00,VWS V14.01,2013-07-10 23:17:00,
2013-07-10 19:18:00,76.8,71.9,29.76,West,260,0.0,0.0,85,0.00,,SKC,0.00,VWS V14.01,2013-07-10 23:18:00,
2013-07-10 19:21:00,76.8,71.9,29.76,West,263,0.0,0.0,85,0.00,,SKC,0.00,VWS V14.01,2013-07-10 23:21:00,
2013-07-10 19:22:00,76.8,71.9,29.76,West,263,0.0,0.0,85,0.00,,SKC,0.00,VWS V14.01,2013-07-10 23:22:00,
2013-07-10 19:23:00,76.8,71.9,29.76,West,261,0.0,0.0,85,0.00,,SKC,0.00,VWS V14.01,2013-07-10 23:23:00,
2013-07-10 19:26:00,76.8,71.9,29.76,West,264,0.0,0.0,85,0.00,,SKC,0.00,VWS V14.01,2013-07-10 23:26:00,
2013-07-10 19:27:00,76.8,71.9,29.76,West,265,0.0,0.0,85,0.00,,SKC,0.00,VWS V14.01,2013-07-10 23:27:00,
2013-07-10 19:28:00,76.8,71.9,29.76,West,265,0.0,0.0,85,0.00,,SKC,0.00,VWS V14.01,2013-07-10 23:28:00,
2013-07-10 19:29:00,76.8,71.9,29.76,West,264,0.0,0.0,85,0.00,,SKC,0.00,VWS V14.01,2013-07-10 23:29:00,
2013-07-10 19:32:00,76.8,71.9,29.77,West,267,0.0,0.0,85,0.00,,SKC,0.00,VWS V14.01,2013-07-10 23:32:00,
2013-07-10 19:33:00,76.8,71.9,29.77,West,267,0.0,0.0,85,0.00,,SKC,0.00,VWS V14.01,2013-07-10 23:33:00,
2013-07-10 19:34:00,76.8,71.9,29.77,West,260,0.0,0.0,85,0.00,,SKC,0.00,VWS V14.01,2013-07-10 23:34:00,
2013-07-10 19:37:00,76.8,71.9,29.77,West,267,0.0,0.0,85,0.00,,SKC,0.00,VWS V14.01,2013-07-10 23:37:00,
2013-07-10 19:38:00,76.8,71.9,29.77,West,267,0.0,0.0,85,0.00,,SKC,0.00,VWS V14.01,2013-07-10 23:38:00,
2013-07-10 19:39:00,76.8,71.9,29.77,West,265,0.0,0.0,85,0.00,,SKC,0.00,VWS V14.01,2013-07-10 23:39:00,
2013-07-10 19:42:00,76.7,71.9,29.77,West,264,0.0,0.0,85,0.00,,SKC,0.00,VWS V14.01,2013-07-10 23:42:00,
2013-07-10 19:43:00,76.7,71.9,29.77,West,264,0.0,0.0,85,0.00,,SKC,0.00,VWS V14.01,2013-07-10 23:43:00,
2013-07-10 19:44:00,76.7,71.9,29.77,WNW,298,1.0,3.0,85,0.00,,SKC,0.00,VWS V14.01,2013-07-10 23:44:00,
2013-07-10 19:45:00,76.7,71.9,29.77,WNW,295,0.0,3.0,85,0.00,,SKC,0.00,VWS V14.01,2013-07-10 23:45:00,
2013-07-10 19:47:00,76.7,71.9,29.77,WNW,296,0.0,0.0,85,0.00,,SKC,0.00,VWS V14.01,2013-07-10 23:47:00,
2013-07-10 19:48:00,76.7,71.9,29.77,WNW,299,0.0,0.0,85,0.00,,SKC,0.00,VWS V14.01,2013-07-10 23:48:00,
2013-07-10 19:49:00,76.7,71.9,29.77,SW,232,1.0,3.0,85,0.00,,SKC,0.00,VWS V14.01,2013-07-10 23:49:00,
2013-07-10 19:50:00,76.7,71.9,29.77,SW,233,1.0,3.0,85,0.00,,SKC,0.00,VWS V14.01,2013-07-10 23:50:00,
2013-07-10 19:53:00,76.7,71.5,29.77,West,278,0.0,2.0,84,0.00,,SKC,0.00,VWS V14.01,2013-07-10 23:53:00,
2013-07-10 19:54:00,76.7,71.5,29.77,West,281,0.0,2.0,84,0.00,,SKC,0.00,VWS V14.01,2013-07-10 23:54:00,
2013-07-10 19:55:00,76.7,71.5,29.77,West,280,0.0,2.0,84,0.00,,SKC,0.00,VWS V14.01,2013-07-10 23:55:00,
2013-07-10 19:58:00,76.7,71.9,29.77,WNW,282,0.0,0.0,85,0.00,,SKC,0.00,VWS V14.01,2013-07-10 23:58:00,
2013-07-10 20:00:00,76.7,71.5,29.78,West,281,0.0,0.0,84,0.00,,SKC,0.00,VWS V14.01,2013-07-11 00:00:00,
2013-07-10 20:01:00,76.7,71.5,29.78,West,281,0.0,0.0,84,0.00,,SKC,0.00,VWS V14.01,2013-07-11 00:01:00,
2013-07-10 20:03:00,76.7,71.5,29.78,WNW,284,0.0,0.0,84,0.00,,SKC,0.00,VWS V14.01,2013-07-11 00:03:00,
2013-07-10 20:04:00,76.7,71.5,29.78,West,281,0.0,0.0,84,0.00,,SKC,0.00,VWS V14.01,2013-07-11 00:04:00,
2013-07-10 20:05:00,76.7,71.9,29.78,WNW,282,0.0,0.0,85,0.00,,SKC,0.00,VWS V14.01,2013-07-11 00:05:00,
2013-07-10 20:06:00,76.7,71.5,29.78,West,281,0.0,0.0,84,0.00,,SKC,0.00,VWS V14.01,2013-07-11 00:06:00,
2013-07-10 20:09:00,76.7,71.5,29.78,West,281,0.0,0.0,84,0.00,,SKC,0.00,VWS V14.01,2013-07-11 00:09:00,
2013-07-10 20:10:00,76.7,71.5,29.78,West,281,0.0,0.0,84,0.00,,SKC,0.00,VWS V14.01,2013-07-11 00:10:00,
2013-07-10 20:11:00,76.7,71.5,29.78,WNW,284,0.0,0.0,84,0.00,,SKC,0.00,VWS V14.01,2013-07-11 00:11:00,
2013-07-10 20:15:00,76.7,71.5,29.78,West,280,0.0,0.0,84,0.00,,SKC,0.00,VWS V14.01,2013-07-11 00:15:00,
2013-07-10 20:16:00,76.7,71.5,29.78,West,280,0.0,0.0,84,0.00,,SKC,0.00,VWS V14.01,2013-07-11 00:16:00,
2013-07-10 20:20:00,76.7,71.5,29.78,West,280,0.0,0.0,84,0.00,,SKC,0.00,VWS V14.01,2013-07-11 00:20:00,
2013-07-10 20:22:00,76.7,71.5,29.78,West,278,0.0,0.0,84,0.00,,SKC,0.00,VWS V14.01,2013-07-11 00:22:00,
2013-07-10 20:23:00,76.5,71.3,29.78,West,277,0.0,0.0,84,0.00,,SKC,0.00,VWS V14.01,2013-07-11 00:23:00,
2013-07-10 20:25:00,76.5,71.3,29.78,West,280,0.0,0.0,84,0.00,,SKC,0.00,VWS V14.01,2013-07-11 00:25:00,
2013-07-10 20:27:00,76.5,71.3,29.78,West,280,0.0,0.0,84,0.00,,SKC,0.00,VWS V14.01,2013-07-11 00:27:00,
2013-07-10 20:29:00,76.5,71.3,29.78,West,277,0.0,0.0,84,0.00,,SKC,0.00,VWS V14.01,2013-07-11 00:29:00,
2013-07-10 20:31:00,76.5,71.3,29.78,West,280,0.0,0.0,84,0.00,,SKC,0.00,VWS V14.01,2013-07-11 00:31:00,
2013-07-10 20:32:00,76.5,71.3,29.78,West,278,0.0,0.0,84,0.00,,SKC,0.00,VWS V14.01,2013-07-11 00:32:00,
2013-07-10 20:34:00,76.5,71.3,29.78,West,280,0.0,0.0,84,0.00,,SKC,0.00,VWS V14.01,2013-07-11 00:34:00,
2013-07-10 20:35:00,76.5,71.3,29.78,West,277,0.0,1.0,84,0.00,,SKC,0.00,VWS V14.01,2013-07-11 00:35:00,
2013-07-10 20:36:00,76.5,71.3,29.78,West,277,0.0,0.0,84,0.00,,SKC,0.00,VWS V14.01,2013-07-11 00:36:00,
2013-07-10 20:37:00,76.5,71.3,29.78,West,280,0.0,0.0,84,0.00,,SKC,0.00,VWS V14.01,2013-07-11 00:37:00,
2013-07-10 20:39:00,76.5,71.3,29.78,West,278,0.0,0.0,84,0.00,,SKC,0.00,VWS V14.01,2013-07-11 00:39:00,
2013-07-10 20:40:00,76.5,71.3,29.78,West,280,0.0,0.0,84,0.00,,SKC,0.00,VWS V14.01,2013-07-11 00:40:00,
2013-07-10 20:41:00,76.5,71.3,29.78,West,275,0.0,0.0,84,0.00,,SKC,0.00,VWS V14.01,2013-07-11 00:41:00,
2013-07-10 20:42:00,76.5,71.3,29.78,West,277,0.0,0.0,84,0.00,,SKC,0.00,VWS V14.01,2013-07-11 00:42:00,
2013-07-10 20:44:00,76.5,71.3,29.78,West,277,0.0,0.0,84,0.00,,SKC,0.00,VWS V14.01,2013-07-11 00:44:00,
2013-07-10 20:45:00,76.5,71.3,29.78,West,280,0.0,0.0,84,0.00,,SKC,0.00,VWS V14.01,2013-07-11 00:45:00,
2013-07-10 20:46:00,76.5,71.3,29.78,West,281,0.0,0.0,84,0.00,,SKC,0.00,VWS V14.01,2013-07-11 00:46:00,
2013-07-10 20:48:00,76.5,71.3,29.78,West,277,0.0,0.0,84,0.00,,SKC,0.00,VWS V14.01,2013-07-11 00:48:00,
2013-07-10 20:50:00,76.5,71.3,29.78,West,278,0.0,0.0,84,0.00,,SKC,0.00,VWS V14.01,2013-07-11 00:50:00,
2013-07-10 20:52:00,76.3,71.1,29.78,West,275,0.0,0.0,84,0.00,,SKC,0.00,VWS V14.01,2013-07-11 00:52:00,
2013-07-10 20:53:00,76.3,71.1,29.78,West,280,0.0,0.0,84,0.00,,SKC,0.00,VWS V14.01,2013-07-11 00:53:00,
2013-07-10 20:54:00,76.3,71.1,29.78,West,280,0.0,0.0,84,0.00,,SKC,0.00,VWS V14.01,2013-07-11 00:54:00,
2013-07-10 20:56:00,76.3,71.1,29.78,West,267,0.0,2.0,84,0.00,,SKC,0.00,VWS V14.01,2013-07-11 00:56:00,
2013-07-10 20:58:00,76.3,71.1,29.78,West,270,0.0,2.0,84,0.00,,SKC,0.00,VWS V14.01,2013-07-11 00:58:00,
2013-07-10 20:59:00,76.3,71.1,29.78,West,268,0.0,2.0,84,0.00,,SKC,0.00,VWS V14.01,2013-07-11 00:59:00,
2013-07-10 21:01:00,76.3,71.1,29.78,West,268,0.0,1.0,84,0.00,,SKC,0.00,VWS V14.01,2013-07-11 01:01:00,
2013-07-10 21:02:00,76.3,71.1,29.78,West,270,0.0,1.0,84,0.00,,SKC,0.00,VWS V14.01,2013-07-11 01:02:00,
2013-07-10 21:03:00,76.3,71.1,29.78,West,268,0.0,1.0,84,0.00,,SKC,0.00,VWS V14.01,2013-07-11 01:03:00,
2013-07-10 21:04:00,76.3,71.1,29.78,West,270,0.0,1.0,84,0.00,,SKC,0.00,VWS V14.01,2013-07-11 01:04:00,
2013-07-10 21:06:00,76.3,71.1,29.78,West,271,0.0,0.0,84,0.00,,SKC,0.00,VWS V14.01,2013-07-11 01:06:00,
2013-07-10 21:07:00,76.3,71.1,29.78,West,268,0.0,0.0,84,0.00,,SKC,0.00,VWS V14.01,2013-07-11 01:07:00,
2013-07-10 21:08:00,76.3,71.1,29.78,West,271,0.0,0.0,84,0.00,,SKC,0.00,VWS V14.01,2013-07-11 01:08:00,
2013-07-10 21:09:00,76.3,71.1,29.78,West,267,0.0,0.0,84,0.00,,SKC,0.00,VWS V14.01,2013-07-11 01:09:00,
2013-07-10 21:11:00,76.3,71.1,29.78,West,267,0.0,0.0,84,0.00,,SKC,0.00,VWS V14.01,2013-07-11 01:11:00,
2013-07-10 21:12:00,76.3,71.1,29.78,West,268,0.0,0.0,84,0.00,,SKC,0.00,VWS V14.01,2013-07-11 01:12:00,
2013-07-10 21:13:00,76.1,70.9,29.78,West,267,0.0,0.0,84,0.00,,SKC,0.00,VWS V14.01,2013-07-11 01:13:00,
2013-07-10 21:14:00,76.1,70.9,29.78,West,268,0.0,0.0,84,0.00,,SKC,0.00,VWS V14.01,2013-07-11 01:14:00,
2013-07-10 21:17:00,76.1,70.9,29.78,West,270,0.0,0.0,84,0.00,,SKC,0.00,VWS V14.01,2013-07-11 01:17:00,
2013-07-10 21:18:00,76.1,70.9,29.78,West,268,0.0,0.0,84,0.00,,SKC,0.00,VWS V14.01,2013-07-11 01:18:00,
2013-07-10 21:19:00,76.1,70.9,29.78,West,268,0.0,0.0,84,0.00,,SKC,0.00,VWS V14.01,2013-07-11 01:19:00,
2013-07-10 21:20:00,76.1,70.9,29.78,West,271,0.0,0.0,84,0.00,,SKC,0.00,VWS V14.01,2013-07-11 01:20:00,
2013-07-10 21:22:00,76.1,70.9,29.78,West,270,0.0,0.0,84,0.00,,SKC,0.00,VWS V14.01,2013-07-11 01:22:00,
2013-07-10 21:24:00,76.1,70.9,29.78,West,268,0.0,0.0,84,0.00,,SKC,0.00,VWS V14.01,2013-07-11 01:24:00,
2013-07-10 21:25:00,76.1,70.9,29.78,West,270,0.0,0.0,84,0.00,,SKC,0.00,VWS V14.01,2013-07-11 01:25:00,
2013-07-10 21:28:00,76.0,70.8,29.78,West,271,0.0,0.0,84,0.00,,SKC,0.00,VWS V14.01,2013-07-11 01:28:00,
2013-07-10 21:29:00,76.0,70.8,29.78,West,268,0.0,0.0,84,0.00,,SKC,0.00,VWS V14.01,2013-07-11 01:29:00,
2013-07-10 21:31:00,76.0,71.2,29.78,West,271,0.0,0.0,85,0.00,,SKC,0.00,VWS V14.01,2013-07-11 01:31:00,
2013-07-10 21:33:00,76.0,71.2,29.78,West,270,0.0,0.0,85,0.00,,SKC,0.00,VWS V14.01,2013-07-11 01:33:00,
2013-07-10 21:34:00,76.0,71.2,29.78,West,271,0.0,0.0,85,0.00,,SKC,0.00,VWS V14.01,2013-07-11 01:34:00,
2013-07-10 21:35:00,76.0,71.2,29.78,West,271,0.0,0.0,85,0.00,,SKC,0.00,VWS V14.01,2013-07-11 01:35:00,
2013-07-10 21:36:00,76.0,71.2,29.78,West,267,0.0,0.0,85,0.00,,SKC,0.00,VWS V14.01,2013-07-11 01:36:00,
2013-07-10 21:38:00,75.8,71.0,29.78,West,268,0.0,0.0,85,0.00,,SKC,0.00,VWS V14.01,2013-07-11 01:38:00,
2013-07-10 21:39:00,75.8,71.0,29.78,West,270,0.0,0.0,85,0.00,,SKC,0.00,VWS V14.01,2013-07-11 01:39:00,
2013-07-10 21:40:00,75.8,71.0,29.78,West,272,0.0,0.0,85,0.00,,SKC,0.00,VWS V14.01,2013-07-11 01:40:00,
2013-07-10 21:42:00,75.8,71.0,29.78,West,268,0.0,0.0,85,0.00,,SKC,0.00,VWS V14.01,2013-07-11 01:42:00,
2013-07-10 21:43:00,75.8,71.0,29.78,West,270,0.0,0.0,85,0.00,,SKC,0.00,VWS V14.01,2013-07-11 01:43:00,
2013-07-10 21:44:00,75.8,71.0,29.78,West,270,0.0,0.0,85,0.00,,SKC,0.00,VWS V14.01,2013-07-11 01:44:00,
2013-07-10 21:45:00,75.8,71.0,29.79,West,268,0.0,0.0,85,0.00,,SKC,0.00,VWS V14.01,2013-07-11 01:45:00,
2013-07-10 21:47:00,75.8,71.0,29.79,West,271,0.0,0.0,85,0.00,,SKC,0.00,VWS V14.01,2013-07-11 01:47:00,
2013-07-10 21:48:00,75.8,71.0,29.79,West,271,0.0,0.0,85,0.00,,SKC,0.00,VWS V14.01,2013-07-11 01:48:00,
2013-07-10 21:49:00,75.8,71.0,29.79,West,270,0.0,0.0,85,0.00,,SKC,0.00,VWS V14.01,2013-07-11 01:49:00,
2013-07-10 21:50:00,75.8,71.0,29.79,West,270,0.0,0.0,85,0.00,,SKC,0.00,VWS V14.01,2013-07-11 01:50:00,
2013-07-10 21:51:00,75.8,71.0,29.79,West,271,0.0,0.0,85,0.00,,SKC,0.00,VWS V14.01,2013-07-11 01:51:00,
2013-07-10 21:52:00,75.8,71.0,29.79,West,271,0.0,0.0,85,0.00,,SKC,0.00,VWS V14.01,2013-07-11 01:52:00,
2013-07-10 21:54:00,75.6,70.8,29.79,West,270,0.0,0.0,85,0.00,,SKC,0.00,VWS V14.01,2013-07-11 01:54:00,
2013-07-10 21:56:00,75.6,70.8,29.79,West,271,0.0,1.0,85,0.00,,SKC,0.00,VWS V14.01,2013-07-11 01:56:00,
2013-07-10 21:58:00,75.6,70.8,29.79,West,271,0.0,1.0,85,0.00,,SKC,0.00,VWS V14.01,2013-07-11 01:58:00,
2013-07-10 21:59:00,75.6,70.8,29.78,West,268,0.0,1.0,85,0.00,,SKC,0.00,VWS V14.01,2013-07-11 01:59:00,
2013-07-10 22:00:00,75.6,70.8,29.78,West,268,0.0,1.0,85,0.00,,SKC,0.00,VWS V14.01,2013-07-11 02:00:00,
2013-07-10 22:01:00,75.6,70.8,29.78,West,267,0.0,0.0,85,0.00,,SKC,0.00,VWS V14.01,2013-07-11 02:01:00,
2013-07-10 22:03:00,75.6,70.8,29.78,West,270,0.0,0.0,85,0.00,,SKC,0.00,VWS V14.01,2013-07-11 02:03:00,
2013-07-10 22:05:00,75.6,70.8,29.78,West,270,0.0,0.0,85,0.00,,SKC,0.00,VWS V14.01,2013-07-11 02:05:00,
2013-07-10 22:06:00,75.6,71.1,29.78,West,270,0.0,0.0,86,0.00,,SKC,0.00,VWS V14.01,2013-07-11 02:06:00,
2013-07-10 22:08:00,75.6,71.1,29.78,West,270,2.0,2.0,86,0.00,,SKC,0.00,VWS V14.01,2013-07-11 02:08:00,
2013-07-10 22:11:00,75.4,70.9,29.78,West,271,0.0,0.0,86,0.00,,SKC,0.00,VWS V14.01,2013-07-11 02:11:00,
2013-07-10 22:12:00,75.4,70.9,29.78,West,268,0.0,0.0,86,0.00,,SKC,0.00,VWS V14.01,2013-07-11 02:12:00,
2013-07-10 22:13:00,75.4,70.9,29.78,West,270,0.0,0.0,86,0.00,,SKC,0.00,VWS V14.01,2013-07-11 02:13:00,
2013-07-10 22:16:00,75.4,70.9,29.78,West,272,0.0,0.0,86,0.00,,SKC,0.00,VWS V14.01,2013-07-11 02:16:00,
2013-07-10 22:17:00,75.4,70.9,29.78,West,278,0.0,0.0,86,0.00,,SKC,0.00,VWS V14.01,2013-07-11 02:17:00,
2013-07-10 22:19:00,75.4,70.9,29.78,West,275,0.0,0.0,86,0.00,,SKC,0.00,VWS V14.01,2013-07-11 02:19:00,
2013-07-10 22:22:00,75.4,70.9,29.78,West,270,0.0,0.0,86,0.00,,SKC,0.00,VWS V14.01,2013-07-11 02:22:00,
2013-07-10 22:25:00,75.3,70.8,29.78,West,275,0.0,0.0,86,0.00,,SKC,0.00,VWS V14.01,2013-07-11 02:25:00,
2013-07-10 22:27:00,75.3,70.8,29.78,West,272,0.0,0.0,86,0.00,,SKC,0.00,VWS V14.01,2013-07-11 02:27:00,
2013-07-10 22:28:00,75.3,70.8,29.78,West,271,0.0,0.0,86,0.00,,SKC,0.00,VWS V14.01,2013-07-11 02:28:00,
2013-07-10 22:31:00,75.1,71.0,29.78,West,272,0.0,0.0,87,0.00,,SKC,0.00,VWS V14.01,2013-07-11 02:31:00,
2013-07-10 22:32:00,75.1,71.0,29.78,West,271,0.0,0.0,87,0.00,,SKC,0.00,VWS V14.01,2013-07-11 02:32:00,
2013-07-10 22:33:00,75.1,71.0,29.78,West,274,0.0,0.0,87,0.00,,SKC,0.00,VWS V14.01,2013-07-11 02:33:00,
2013-07-10 22:36:00,74.9,70.8,29.78,West,270,0.0,0.0,87,0.00,,SKC,0.00,VWS V14.01,2013-07-11 02:36:00,
2013-07-10 22:38:00,74.9,70.8,29.78,West,274,0.0,0.0,87,0.00,,SKC,0.00,VWS V14.01,2013-07-11 02:38:00,
2013-07-10 22:39:00,74.9,70.8,29.78,West,274,0.0,0.0,87,0.00,,SKC,0.00,VWS V14.01,2013-07-11 02:39:00,
2013-07-10 22:41:00,74.9,70.8,29.78,West,271,0.0,0.0,87,0.00,,SKC,0.00,VWS V14.01,2013-07-11 02:41:00,
2013-07-10 22:43:00,74.9,70.8,29.78,West,271,0.0,0.0,87,0.00,,SKC,0.00,VWS V14.01,2013-07-11 02:43:00,
2013-07-10 22:44:00,74.9,70.8,29.78,West,271,0.0,0.0,87,0.00,,SKC,0.00,VWS V14.01,2013-07-11 02:44:00,
2013-07-10 22:46:00,74.7,70.6,29.78,West,270,0.0,0.0,87,0.00,,SKC,0.00,VWS V14.01,2013-07-11 02:46:00,
2013-07-10 22:48:00,74.7,70.6,29.78,West,271,0.0,0.0,87,0.00,,SKC,0.00,VWS V14.01,2013-07-11 02:48:00,
2013-07-10 22:49:00,74.7,70.6,29.78,West,271,0.0,0.0,87,0.00,,SKC,0.00,VWS V14.01,2013-07-11 02:49:00,
2013-07-10 22:50:00,74.7,70.9,29.78,West,270,0.0,0.0,88,0.00,,SKC,0.00,VWS V14.01,2013-07-11 02:50:00,
2013-07-10 22:53:00,74.7,70.6,29.78,West,271,0.0,0.0,87,0.00,,SKC,0.00,VWS V14.01,2013-07-11 02:53:00,
2013-07-10 22:54:00,74.7,70.9,29.78,West,268,0.0,0.0,88,0.00,,SKC,0.00,VWS V14.01,2013-07-11 02:54:00,
2013-07-10 22:55:00,74.7,70.9,29.78,West,270,0.0,0.0,88,0.00,,SKC,0.00,VWS V14.01,2013-07-11 02:55:00,
2013-07-10 22:58:00,74.7,70.9,29.78,West,271,0.0,0.0,88,0.00,,SKC,0.00,VWS V14.01,2013-07-11 02:58:00,
2013-07-10 22:59:00,74.7,70.9,29.78,West,270,0.0,0.0,88,0.00,,SKC,0.00,VWS V14.01,2013-07-11 02:59:00,
2013-07-10 23:00:00,74.7,70.9,29.78,West,270,0.0,0.0,88,0.00,,SKC,0.00,VWS V14.01,2013-07-11 03:00:00,
2013-07-10 23:04:00,74.7,70.9,29.78,West,270,0.0,1.0,88,0.00,,SKC,0.00,VWS V14.01,2013-07-11 03:04:00,
2013-07-10 23:05:00,74.7,70.9,29.78,West,271,0.0,1.0,88,0.00,,SKC,0.00,VWS V14.01,2013-07-11 03:05:00,
2013-07-10 23:06:00,74.7,70.9,29.78,West,265,0.0,0.0,88,0.00,,SKC,0.00,VWS V14.01,2013-07-11 03:06:00,
2013-07-10 23:09:00,74.7,70.6,29.78,West,271,0.0,0.0,87,0.00,,SKC,0.00,VWS V14.01,2013-07-11 03:09:00,
2013-07-10 23:10:00,74.7,70.6,29.78,West,270,0.0,0.0,87,0.00,,SKC,0.00,VWS V14.01,2013-07-11 03:10:00,
2013-07-10 23:11:00,74.7,70.9,29.78,West,274,0.0,0.0,88,0.00,,SKC,0.00,VWS V14.01,2013-07-11 03:11:00,
2013-07-10 23:15:00,74.7,70.6,29.78,West,270,0.0,0.0,87,0.00,,SKC,0.00,VWS V14.01,2013-07-11 03:15:00,
2013-07-10 23:16:00,74.7,70.6,29.78,West,272,0.0,0.0,87,0.00,,SKC,0.00,VWS V14.01,2013-07-11 03:16:00,
2013-07-10 23:17:00,74.7,70.6,29.78,West,271,0.0,0.0,87,0.00,,SKC,0.00,VWS V14.01,2013-07-11 03:17:00,
2013-07-10 23:20:00,74.7,70.6,29.78,West,271,0.0,1.0,87,0.00,,SKC,0.00,VWS V14.01,2013-07-11 03:20:00,
2013-07-10 23:21:00,74.7,70.6,29.78,West,271,0.0,0.0,87,0.00,,SKC,0.00,VWS V14.01,2013-07-11 03:21:00,
2013-07-10 23:23:00,74.7,70.6,29.78,West,271,2.0,2.0,87,0.00,,SKC,0.00,VWS V14.01,2013-07-11 03:23:00,
2013-07-10 23:26:00,74.9,70.8,29.78,West,270,0.0,0.0,87,0.00,,SKC,0.00,VWS V14.01,2013-07-11 03:26:00,
2013-07-10 23:28:00,74.9,70.4,29.78,West,271,0.0,0.0,86,0.00,,SKC,0.00,VWS V14.01,2013-07-11 03:28:00,
2013-07-10 23:31:00,74.9,70.4,29.77,West,275,0.0,0.0,86,0.00,,SKC,0.00,VWS V14.01,2013-07-11 03:31:00,
2013-07-10 23:34:00,74.9,70.4,29.77,West,275,0.0,0.0,86,0.00,,SKC,0.00,VWS V14.01,2013-07-11 03:34:00,
2013-07-10 23:36:00,74.9,70.4,29.77,West,272,0.0,0.0,86,0.00,,SKC,0.00,VWS V14.01,2013-07-11 03:36:00,
2013-07-10 23:37:00,74.9,70.4,29.77,West,277,0.0,0.0,86,0.00,,SKC,0.00,VWS V14.01,2013-07-11 03:37:00,
2013-07-10 23:39:00,74.9,70.4,29.77,West,271,0.0,0.0,86,0.00,,SKC,0.00,VWS V14.01,2013-07-11 03:39:00,
2013-07-10 23:41:00,74.9,70.4,29.77,West,275,0.0,0.0,86,0.00,,SKC,0.00,VWS V14.01,2013-07-11 03:41:00,
2013-07-10 23:42:00,74.9,70.4,29.77,West,274,0.0,0.0,86,0.00,,SKC,0.00,VWS V14.01,2013-07-11 03:42:00,
2013-07-10 23:43:00,74.9,70.4,29.77,WNW,284,1.0,2.0,86,0.00,,SKC,0.00,VWS V14.01,2013-07-11 03:43:00,
2013-07-10 23:45:00,74.9,70.4,29.77,WNW,287,0.0,2.0,86,0.00,,SKC,0.00,VWS V14.01,2013-07-11 03:45:00,
2013-07-10 23:46:00,74.9,70.4,29.77,WNW,285,0.0,1.0,86,0.00,,SKC,0.00,VWS V14.01,2013-07-11 03:46:00,
2013-07-10 23:47:00,74.9,70.4,29.77,WNW,287,0.0,1.0,86,0.00,,SKC,0.00,VWS V14.01,2013-07-11 03:47:00,
2013-07-10 23:48:00,74.9,70.4,29.77,WNW,288,0.0,1.0,86,0.00,,SKC,0.00,VWS V14.01,2013-07-11 03:48:00,
2013-07-10 23:50:00,74.9,70.4,29.77,WNW,285,0.0,1.0,86,0.00,,SKC,0.00,VWS V14.01,2013-07-11 03:50:00,
2013-07-10 23:52:00,74.9,70.4,29.77,WNW,289,0.0,0.0,86,0.00,,SKC,0.00,VWS V14.01,2013-07-11 03:52:00,
2013-07-10 23:53:00,74.9,70.4,29.77,WNW,291,0.0,0.0,86,0.00,,SKC,0.00,VWS V14.01,2013-07-11 03:53:00,
2013-07-10 23:55:00,74.9,70.4,29.77,WNW,288,0.0,0.0,86,0.00,,SKC,0.00,VWS V14.01,2013-07-11 03:55:00,
2013-07-10 23:58:00,74.9,70.4,29.77,WNW,291,0.0,0.0,86,0.00,,SKC,0.00,VWS V14.01,2013-07-11 03:58:00,
2013-07-10 23:59:00,74.9,70.4,29.77,WNW,291,0.0,0.0,86,0.00,,SKC,0.00,VWS V14.01,2013-07-11 03:59:00,